Wetterdaten: Freitag, 14.10.2022
Datum Zeit Temp. 2m Temp +5 cm Feuchte A. Luftdruck Regen Wind Richtung Richtung Sonnenschein UV Solar Taupunkt Windchill Windben
14.10.2022 00:00 10,8 C 10,0 C 93 % 1018,7 hPa 0,0 l/m 11,5 km/h (2 Bft) S 186 0 min 0,0 UV-I 0 W/m 9,7 C 7,7 C 24,1 km/h (4 Bft)
14.10.2022 00:03 10,8 C 10,0 C 93 % 1018,7 hPa 0,0 l/m 13,8 km/h (3 Bft) S-SW 194 0 min 0,0 UV-I 0 W/m 9,7 C 6,6 C 19,3 km/h (3 Bft)
14.10.2022 00:06 10,8 C 10,0 C 93 % 1018,9 hPa 0,0 l/m 15,1 km/h (3 Bft) SW 215 0 min 0,0 UV-I 0 W/m 9,7 C 6,1 C 22,5 km/h (4 Bft)
14.10.2022 00:09 10,8 C 10,0 C 93 % 1018,8 hPa 0,0 l/m 11,8 km/h (2 Bft) S-SW 194 0 min 0,0 UV-I 0 W/m 9,7 C 7,5 C 20,9 km/h (4 Bft)
14.10.2022 00:12 10,8 C 10,0 C 93 % 1018,7 hPa 0,0 l/m 11,8 km/h (2 Bft) S 177 0 min 0,0 UV-I 0 W/m 9,7 C 7,5 C 20,9 km/h (4 Bft)
14.10.2022 00:15 10,8 C 10,0 C 93 % 1018,7 hPa 0,0 l/m 10,4 km/h (2 Bft) S-SW 207 0 min 0,0 UV-I 0 W/m 9,7 C 8,3 C 22,5 km/h (4 Bft)
14.10.2022 00:18 10,8 C 10,0 C 93 % 1018,7 hPa 0,0 l/m 8,0 km/h (2 Bft) S-SW 205 0 min 0,0 UV-I 0 W/m 9,7 C 9,7 C 14,5 km/h (3 Bft)
14.10.2022 00:21 10,8 C 10,0 C 93 % 1018,7 hPa 0,0 l/m 11,4 km/h (2 Bft) S-SW 205 0 min 0,0 UV-I 0 W/m 9,7 C 7,7 C 19,3 km/h (3 Bft)
14.10.2022 00:24 10,8 C 10,0 C 93 % 1018,7 hPa 0,0 l/m 10,7 km/h (2 Bft) S-SW 203 0 min 0,0 UV-I 0 W/m 9,7 C 8,1 C 19,3 km/h (3 Bft)
14.10.2022 00:27 10,8 C 10,0 C 93 % 1018,7 hPa 0,0 l/m 10,3 km/h (2 Bft) S 189 0 min 0,0 UV-I 0 W/m 9,7 C 8,3 C 17,7 km/h (3 Bft)
14.10.2022 00:30 10,8 C 10,0 C 93 % 1018,7 hPa 0,2 l/m 13,1 km/h (3 Bft) S-SW 193 0 min 0,0 UV-I 0 W/m 9,7 C 6,9 C 24,1 km/h (4 Bft)
14.10.2022 00:33 10,8 C 10,0 C 93 % 1018,6 hPa 0,0 l/m 9,9 km/h (2 Bft) S 186 0 min 0,0 UV-I 0 W/m 9,7 C 8,5 C 17,7 km/h (3 Bft)
14.10.2022 00:36 10,8 C 10,0 C 93 % 1018,7 hPa 0,0 l/m 9,2 km/h (2 Bft) S 181 0 min 0,0 UV-I 0 W/m 9,7 C 8,9 C 12,9 km/h (3 Bft)
14.10.2022 00:39 10,8 C 10,0 C 93 % 1018,7 hPa 0,0 l/m 11,0 km/h (2 Bft) S 178 0 min 0,0 UV-I 0 W/m 9,7 C 7,9 C 17,7 km/h (3 Bft)
14.10.2022 00:42 10,8 C 10,0 C 93 % 1018,6 hPa 0,0 l/m 10,3 km/h (2 Bft) S 190 0 min 0,0 UV-I 0 W/m 9,7 C 8,3 C 22,5 km/h (4 Bft)
14.10.2022 00:45 10,8 C 10,0 C 93 % 1018,5 hPa 0,0 l/m 12,1 km/h (2 Bft) S 190 0 min 0,0 UV-I 0 W/m 9,7 C 7,4 C 20,9 km/h (4 Bft)
14.10.2022 00:48 10,8 C 10,0 C 93 % 1018,6 hPa 0,0 l/m 10,5 km/h (2 Bft) S 178 0 min 0,0 UV-I 0 W/m 9,7 C 8,2 C 17,7 km/h (3 Bft)
14.10.2022 00:51 10,8 C 10,0 C 93 % 1018,6 hPa 0,0 l/m 10,1 km/h (2 Bft) S 183 0 min 0,0 UV-I 0 W/m 9,7 C 8,4 C 14,5 km/h (3 Bft)
14.10.2022 00:54 10,8 C 10,0 C 93 % 1018,6 hPa 0,0 l/m 10,0 km/h (2 Bft) S-SW 200 0 min 0,0 UV-I 0 W/m 9,7 C 8,5 C 17,7 km/h (3 Bft)
14.10.2022 00:57 10,8 C 10,0 C 93 % 1018,5 hPa 0,0 l/m 11,0 km/h (2 Bft) S 182 0 min 0,0 UV-I 0 W/m 9,7 C 7,9 C 19,3 km/h (3 Bft)
14.10.2022 01:00 10,8 C 10,0 C 93 % 1018,5 hPa 0,0 l/m 11,2 km/h (2 Bft) S-SW 196 0 min 0,0 UV-I 0 W/m 9,7 C 7,8 C 17,7 km/h (3 Bft)
14.10.2022 01:03 10,8 C 10,0 C 93 % 1018,6 hPa 0,0 l/m 12,4 km/h (3 Bft) SW 229 0 min 0,0 UV-I 0 W/m 9,7 C 7,2 C 17,7 km/h (3 Bft)
14.10.2022 01:06 10,8 C 10,0 C 93 % 1018,5 hPa 0,0 l/m 9,9 km/h (2 Bft) S 184 0 min 0,0 UV-I 0 W/m 9,7 C 8,5 C 14,5 km/h (3 Bft)
14.10.2022 01:09 10,8 C 10,0 C 93 % 1018,5 hPa 0,0 l/m 11,7 km/h (2 Bft) S-SW 198 0 min 0,0 UV-I 0 W/m 9,7 C 7,6 C 19,3 km/h (3 Bft)
14.10.2022 01:12 10,8 C 10,6 C 93 % 1018,5 hPa 0,0 l/m 12,2 km/h (2 Bft) S 184 0 min 0,0 UV-I 0 W/m 9,7 C 7,3 C 19,3 km/h (3 Bft)
14.10.2022 01:15 10,8 C 10,6 C 93 % 1018,5 hPa 0,0 l/m 10,4 km/h (2 Bft) S 183 0 min 0,0 UV-I 0 W/m 9,7 C 8,3 C 17,7 km/h (3 Bft)
14.10.2022 01:18 10,8 C 10,6 C 93 % 1018,4 hPa 0,0 l/m 12,7 km/h (3 Bft) S-SW 200 0 min 0,0 UV-I 0 W/m 9,7 C 7,1 C 17,7 km/h (3 Bft)
14.10.2022 01:21 10,8 C 10,6 C 93 % 1018,5 hPa 0,0 l/m 10,8 km/h (2 Bft) SW 226 0 min 0,0 UV-I 0 W/m 9,7 C 8,0 C 19,3 km/h (3 Bft)
14.10.2022 01:24 10,8 C 10,6 C 93 % 1018,4 hPa 0,0 l/m 9,9 km/h (2 Bft) S-SW 209 0 min 0,0 UV-I 0 W/m 9,7 C 8,5 C 17,7 km/h (3 Bft)
14.10.2022 01:27 10,8 C 10,6 C 93 % 1018,4 hPa 0,0 l/m 10,8 km/h (2 Bft) S 184 0 min 0,0 UV-I 0 W/m 9,7 C 8,0 C 17,7 km/h (3 Bft)
14.10.2022 01:30 10,8 C 10,6 C 93 % 1018,4 hPa 0,0 l/m 10,1 km/h (2 Bft) S-SW 194 0 min 0,0 UV-I 0 W/m 9,7 C 8,4 C 16,1 km/h (3 Bft)
14.10.2022 01:33 10,8 C 10,6 C 93 % 1018,4 hPa 0,0 l/m 10,5 km/h (2 Bft) SW 217 0 min 0,0 UV-I 0 W/m 9,7 C 8,2 C 17,7 km/h (3 Bft)
14.10.2022 01:36 10,8 C 10,6 C 93 % 1018,4 hPa 0,0 l/m 9,7 km/h (2 Bft) S 176 0 min 0,0 UV-I 0 W/m 9,7 C 8,6 C 14,5 km/h (3 Bft)
14.10.2022 01:39 10,8 C 10,6 C 93 % 1018,3 hPa 0,0 l/m 10,4 km/h (2 Bft) S-SW 195 0 min 0,0 UV-I 0 W/m 9,7 C 8,3 C 17,7 km/h (3 Bft)
14.10.2022 01:42 10,8 C 10,6 C 93 % 1018,3 hPa 0,0 l/m 9,7 km/h (2 Bft) S-SW 192 0 min 0,0 UV-I 0 W/m 9,7 C 8,6 C 14,5 km/h (3 Bft)
14.10.2022 01:45 10,8 C 10,6 C 93 % 1018,3 hPa 0,0 l/m 8,8 km/h (2 Bft) S 183 0 min 0,0 UV-I 0 W/m 9,7 C 9,2 C 14,5 km/h (3 Bft)
14.10.2022 01:48 10,8 C 10,6 C 93 % 1018,2 hPa 0,0 l/m 8,6 km/h (2 Bft) S 187 0 min 0,0 UV-I 0 W/m 9,7 C 9,3 C 11,3 km/h (2 Bft)
14.10.2022 01:51 10,8 C 10,6 C 93 % 1018,2 hPa 0,0 l/m 9,3 km/h (2 Bft) SW 223 0 min 0,0 UV-I 0 W/m 9,7 C 8,9 C 14,5 km/h (3 Bft)
14.10.2022 01:54 10,8 C 10,6 C 93 % 1018,2 hPa 0,0 l/m 9,2 km/h (2 Bft) S-SW 196 0 min 0,0 UV-I 0 W/m 9,7 C 8,9 C 14,5 km/h (3 Bft)
14.10.2022 01:57 10,8 C 10,6 C 93 % 1018,3 hPa 0,0 l/m 10,5 km/h (2 Bft) SW 234 0 min 0,0 UV-I 0 W/m 9,7 C 8,2 C 17,7 km/h (3 Bft)
14.10.2022 02:00 10,8 C 10,6 C 93 % 1018,3 hPa 0,0 l/m 8,6 km/h (2 Bft) S-SW 196 0 min 0,0 UV-I 0 W/m 9,7 C 9,3 C 17,7 km/h (3 Bft)
14.10.2022 02:03 10,8 C 10,6 C 93 % 1018,3 hPa 0,0 l/m 9,6 km/h (2 Bft) S-SW 198 0 min 0,0 UV-I 0 W/m 9,7 C 8,7 C 16,1 km/h (3 Bft)
14.10.2022 02:06 10,8 C 10,6 C 94 % 1018,2 hPa 0,0 l/m 8,2 km/h (2 Bft) S-SW 200 0 min 0,0 UV-I 0 W/m 9,9 C 9,6 C 12,9 km/h (3 Bft)
14.10.2022 02:09 10,8 C 10,6 C 93 % 1018,2 hPa 0,0 l/m 8,2 km/h (2 Bft) S 173 0 min 0,0 UV-I 0 W/m 9,7 C 9,6 C 16,1 km/h (3 Bft)
14.10.2022 02:12 10,8 C 10,6 C 94 % 1018,2 hPa 0,0 l/m 10,9 km/h (2 Bft) S 172 0 min 0,0 UV-I 0 W/m 9,9 C 8,0 C 16,1 km/h (3 Bft)
14.10.2022 02:15 10,8 C 10,6 C 94 % 1018,2 hPa 0,0 l/m 8,1 km/h (2 Bft) S-SO 161 0 min 0,0 UV-I 0 W/m 9,9 C 9,6 C 16,1 km/h (3 Bft)
14.10.2022 02:18 10,8 C 10,6 C 94 % 1018,2 hPa 0,0 l/m 9,8 km/h (2 Bft) S-SO 164 0 min 0,0 UV-I 0 W/m 9,9 C 8,6 C 19,3 km/h (3 Bft)
14.10.2022 02:21 10,8 C 10,6 C 94 % 1018,2 hPa 0,0 l/m 11,1 km/h (2 Bft) S-SW 201 0 min 0,0 UV-I 0 W/m 9,9 C 7,9 C 19,3 km/h (3 Bft)
14.10.2022 02:24 10,8 C 10,6 C 94 % 1018,1 hPa 0,0 l/m 10,4 km/h (2 Bft) S 183 0 min 0,0 UV-I 0 W/m 9,9 C 8,3 C 16,1 km/h (3 Bft)
14.10.2022 02:27 10,8 C 10,6 C 94 % 1018,1 hPa 0,0 l/m 11,4 km/h (2 Bft) SW 215 0 min 0,0 UV-I 0 W/m 9,9 C 7,7 C 17,7 km/h (3 Bft)
14.10.2022 02:30 10,8 C 10,6 C 94 % 1018,1 hPa 0,0 l/m 9,0 km/h (2 Bft) S-SW 200 0 min 0,0 UV-I 0 W/m 9,9 C 9,1 C 17,7 km/h (3 Bft)
14.10.2022 02:33 10,8 C 10,6 C 94 % 1018,2 hPa 0,0 l/m 6,6 km/h (2 Bft) S 180 0 min 0,0 UV-I 0 W/m 9,9 C 10,7 C 11,3 km/h (2 Bft)
14.10.2022 02:36 10,8 C 10,6 C 94 % 1018,1 hPa 0,0 l/m 7,0 km/h (2 Bft) S 184 0 min 0,0 UV-I 0 W/m 9,9 C 10,4 C 12,9 km/h (3 Bft)
14.10.2022 02:39 10,8 C 10,6 C 94 % 1018,2 hPa 0,0 l/m 9,6 km/h (2 Bft) S-SW 202 0 min 0,0 UV-I 0 W/m 9,9 C 8,7 C 17,7 km/h (3 Bft)
14.10.2022 02:42 10,8 C 10,6 C 94 % 1018,1 hPa 0,0 l/m 7,5 km/h (2 Bft) S 186 0 min 0,0 UV-I 0 W/m 9,9 C 10,0 C 12,9 km/h (3 Bft)
14.10.2022 02:45 10,8 C 10,6 C 94 % 1018,2 hPa 0,0 l/m 7,2 km/h (2 Bft) S 169 0 min 0,0 UV-I 0 W/m 9,9 C 10,2 C 12,9 km/h (3 Bft)
14.10.2022 02:48 10,8 C 10,6 C 94 % 1018,2 hPa 0,0 l/m 6,9 km/h (2 Bft) SW 225 0 min 0,0 UV-I 0 W/m 9,9 C 10,5 C 11,3 km/h (2 Bft)
14.10.2022 02:51 10,8 C 10,6 C 94 % 1018,2 hPa 0,0 l/m 6,6 km/h (2 Bft) S 181 0 min 0,0 UV-I 0 W/m 9,9 C 10,7 C 9,7 km/h (2 Bft)
14.10.2022 02:54 10,8 C 10,6 C 94 % 1018,1 hPa 0,0 l/m 6,5 km/h (2 Bft) S-SW 193 0 min 0,0 UV-I 0 W/m 9,9 C 10,8 C 12,9 km/h (3 Bft)
14.10.2022 02:57 10,8 C 10,6 C 94 % 1018,0 hPa 0,0 l/m 7,8 km/h (2 Bft) S 184 0 min 0,0 UV-I 0 W/m 9,9 C 9,8 C 17,7 km/h (3 Bft)
14.10.2022 03:00 10,9 C 10,6 C 94 % 1018,1 hPa 0,0 l/m 7,0 km/h (2 Bft) S 186 0 min 0,0 UV-I 0 W/m 10,0 C 10,5 C 14,5 km/h (3 Bft)
14.10.2022 03:03 10,9 C 10,6 C 94 % 1017,9 hPa 0,0 l/m 8,4 km/h (2 Bft) S 179 0 min 0,0 UV-I 0 W/m 10,0 C 9,5 C 14,5 km/h (3 Bft)
14.10.2022 03:06 10,9 C 10,6 C 94 % 1017,8 hPa 0,0 l/m 6,4 km/h (2 Bft) SW 223 0 min 0,0 UV-I 0 W/m 10,0 C 10,9 C 9,7 km/h (2 Bft)
14.10.2022 03:09 10,9 C 10,6 C 94 % 1017,8 hPa 0,0 l/m 7,3 km/h (2 Bft) S 189 0 min 0,0 UV-I 0 W/m 10,0 C 10,3 C 11,3 km/h (2 Bft)
14.10.2022 03:12 10,9 C 10,6 C 94 % 1017,7 hPa 0,0 l/m 7,8 km/h (2 Bft) S 184 0 min 0,0 UV-I 0 W/m 10,0 C 9,9 C 14,5 km/h (3 Bft)
14.10.2022 03:15 10,9 C 10,6 C 94 % 1017,7 hPa 0,0 l/m 6,5 km/h (2 Bft) S 178 0 min 0,0 UV-I 0 W/m 10,0 C 10,9 C 11,3 km/h (2 Bft)
14.10.2022 03:18 10,9 C 10,6 C 94 % 1017,7 hPa 0,0 l/m 7,7 km/h (2 Bft) S 178 0 min 0,0 UV-I 0 W/m 10,0 C 10,0 C 12,9 km/h (3 Bft)
14.10.2022 03:21 10,9 C 10,6 C 94 % 1017,7 hPa 0,0 l/m 8,6 km/h (2 Bft) S-SW 192 0 min 0,0 UV-I 0 W/m 10,0 C 9,4 C 14,5 km/h (3 Bft)
14.10.2022 03:24 10,9 C 10,6 C 94 % 1017,7 hPa 0,0 l/m 9,3 km/h (2 Bft) SO 130 0 min 0,0 UV-I 0 W/m 10,0 C 9,0 C 14,5 km/h (3 Bft)
14.10.2022 03:27 10,9 C 10,6 C 94 % 1017,7 hPa 0,0 l/m 7,2 km/h (2 Bft) S 180 0 min 0,0 UV-I 0 W/m 10,0 C 10,3 C 12,9 km/h (3 Bft)
14.10.2022 03:30 10,9 C 10,6 C 94 % 1017,7 hPa 0,0 l/m 8,8 km/h (2 Bft) S-SW 209 0 min 0,0 UV-I 0 W/m 10,0 C 9,3 C 14,5 km/h (3 Bft)
14.10.2022 03:33 10,9 C 10,6 C 94 % 1017,6 hPa 0,0 l/m 9,6 km/h (2 Bft) S-SO 159 0 min 0,0 UV-I 0 W/m 10,0 C 8,8 C 14,5 km/h (3 Bft)
14.10.2022 03:36 10,9 C 10,6 C 94 % 1017,5 hPa 0,0 l/m 6,7 km/h (2 Bft) S-SO 168 0 min 0,0 UV-I 0 W/m 10,0 C 10,7 C 11,3 km/h (2 Bft)
14.10.2022 03:39 10,9 C 10,6 C 94 % 1017,5 hPa 0,0 l/m 8,0 km/h (2 Bft) S 189 0 min 0,0 UV-I 0 W/m 10,0 C 9,8 C 14,5 km/h (3 Bft)
14.10.2022 03:42 10,9 C 10,6 C 94 % 1017,4 hPa 0,0 l/m 8,5 km/h (2 Bft) S 180 0 min 0,0 UV-I 0 W/m 10,0 C 9,5 C 16,1 km/h (3 Bft)
14.10.2022 03:45 10,8 C 10,6 C 94 % 1017,3 hPa 0,0 l/m 7,7 km/h (2 Bft) S-SO 148 0 min 0,0 UV-I 0 W/m 9,9 C 9,9 C 16,1 km/h (3 Bft)
14.10.2022 03:48 10,8 C 10,6 C 94 % 1017,2 hPa 0,0 l/m 7,7 km/h (2 Bft) S 184 0 min 0,0 UV-I 0 W/m 9,9 C 9,9 C 16,1 km/h (3 Bft)
14.10.2022 03:51 10,8 C 10,6 C 94 % 1017,3 hPa 0,0 l/m 8,4 km/h (2 Bft) S-SW 213 0 min 0,0 UV-I 0 W/m 9,9 C 9,4 C 16,1 km/h (3 Bft)
14.10.2022 03:54 10,8 C 10,6 C 94 % 1017,2 hPa 0,0 l/m 9,7 km/h (2 Bft) S-SO 167 0 min 0,0 UV-I 0 W/m 9,9 C 8,6 C 17,7 km/h (3 Bft)
14.10.2022 03:57 10,8 C 10,6 C 94 % 1017,1 hPa 0,0 l/m 7,8 km/h (2 Bft) S 183 0 min 0,0 UV-I 0 W/m 9,9 C 9,8 C 12,9 km/h (3 Bft)
14.10.2022 04:00 10,8 C 10,6 C 94 % 1017,2 hPa 0,0 l/m 7,9 km/h (2 Bft) S 170 0 min 0,0 UV-I 0 W/m 9,9 C 9,8 C 12,9 km/h (3 Bft)
14.10.2022 04:03 10,8 C 10,6 C 94 % 1017,2 hPa 0,0 l/m 10,5 km/h (2 Bft) S-SW 202 0 min 0,0 UV-I 0 W/m 9,9 C 8,2 C 19,3 km/h (3 Bft)
14.10.2022 04:06 10,8 C 10,6 C 93 % 1017,2 hPa 0,0 l/m 8,1 km/h (2 Bft) S 177 0 min 0,0 UV-I 0 W/m 9,7 C 9,6 C 14,5 km/h (3 Bft)
14.10.2022 04:09 10,8 C 10,6 C 94 % 1017,0 hPa 0,0 l/m 5,7 km/h (1 Bft) S-SO 161 0 min 0,0 UV-I 0 W/m 9,9 C 10,8 C 9,7 km/h (2 Bft)
14.10.2022 04:12 10,8 C 10,6 C 94 % 1017,1 hPa 0,0 l/m 7,2 km/h (2 Bft) S-SW 196 0 min 0,0 UV-I 0 W/m 9,9 C 10,2 C 9,7 km/h (2 Bft)
14.10.2022 04:15 10,8 C 10,6 C 94 % 1017,0 hPa 0,0 l/m 6,3 km/h (2 Bft) S 180 0 min 0,0 UV-I 0 W/m 9,9 C 10,8 C 9,7 km/h (2 Bft)
14.10.2022 04:18 10,8 C 10,6 C 94 % 1016,9 hPa 0,0 l/m 6,3 km/h (2 Bft) S 178 0 min 0,0 UV-I 0 W/m 9,9 C 10,8 C 11,3 km/h (2 Bft)
14.10.2022 04:21 10,8 C 10,6 C 94 % 1016,9 hPa 0,0 l/m 6,9 km/h (2 Bft) S-SO 156 0 min 0,0 UV-I 0 W/m 9,9 C 10,5 C 14,5 km/h (3 Bft)
14.10.2022 04:24 10,8 C 10,6 C 94 % 1017,0 hPa 0,0 l/m 6,0 km/h (2 Bft) S-SO 165 0 min 0,0 UV-I 0 W/m 9,9 C 10,8 C 9,7 km/h (2 Bft)
14.10.2022 04:27 10,8 C 10,6 C 93 % 1016,9 hPa 0,0 l/m 6,0 km/h (2 Bft) S 180 0 min 0,0 UV-I 0 W/m 9,7 C 10,8 C 9,7 km/h (2 Bft)
14.10.2022 04:30 10,8 C 10,6 C 94 % 1016,9 hPa 0,0 l/m 6,3 km/h (2 Bft) S-SO 152 0 min 0,0 UV-I 0 W/m 9,9 C 10,8 C 14,5 km/h (3 Bft)
14.10.2022 04:33 10,8 C 10,6 C 93 % 1016,9 hPa 0,0 l/m 3,5 km/h (1 Bft) S-SO 155 0 min 0,0 UV-I 0 W/m 9,7 C 10,8 C 8,0 km/h (2 Bft)
14.10.2022 04:36 10,8 C 10,6 C 94 % 1016,9 hPa 0,0 l/m 5,1 km/h (1 Bft) S 170 0 min 0,0 UV-I 0 W/m 9,9 C 10,8 C 12,9 km/h (3 Bft)
14.10.2022 04:39 10,8 C 10,6 C 94 % 1016,8 hPa 0,0 l/m 7,6 km/h (2 Bft) S 175 0 min 0,0 UV-I 0 W/m 9,9 C 10,0 C 14,5 km/h (3 Bft)
14.10.2022 04:42 10,8 C 10,6 C 94 % 1016,9 hPa 0,0 l/m 5,2 km/h (1 Bft) S 178 0 min 0,0 UV-I 0 W/m 9,9 C 10,8 C 9,7 km/h (2 Bft)
14.10.2022 04:45 10,8 C 10,6 C 94 % 1016,8 hPa 0,0 l/m 4,9 km/h (1 Bft) S 169 0 min 0,0 UV-I 0 W/m 9,9 C 10,8 C 9,7 km/h (2 Bft)
14.10.2022 04:48 10,8 C 10,6 C 94 % 1016,8 hPa 0,0 l/m 6,4 km/h (2 Bft) S 191 0 min 0,0 UV-I 0 W/m 9,9 C 10,8 C 9,7 km/h (2 Bft)
14.10.2022 04:51 10,8 C 10,6 C 94 % 1016,8 hPa 0,0 l/m 6,0 km/h (2 Bft) S 169 0 min 0,0 UV-I 0 W/m 9,9 C 10,8 C 9,7 km/h (2 Bft)
14.10.2022 04:54 10,8 C 10,6 C 94 % 1016,7 hPa 0,0 l/m 6,4 km/h (2 Bft) S-SO 163 0 min 0,0 UV-I 0 W/m 9,9 C 10,8 C 9,7 km/h (2 Bft)
14.10.2022 04:57 10,8 C 10,6 C 94 % 1016,7 hPa 0,0 l/m 5,4 km/h (1 Bft) S-SW 199 0 min 0,0 UV-I 0 W/m 9,9 C 10,8 C 9,7 km/h (2 Bft)
14.10.2022 05:00 10,8 C 10,6 C 94 % 1016,7 hPa 0,0 l/m 4,9 km/h (1 Bft) S 190 0 min 0,0 UV-I 0 W/m 9,9 C 10,8 C 9,7 km/h (2 Bft)
14.10.2022 05:03 10,8 C 10,6 C 94 % 1016,8 hPa 0,0 l/m 5,1 km/h (1 Bft) S 173 0 min 0,0 UV-I 0 W/m 9,9 C 10,8 C 9,7 km/h (2 Bft)
14.10.2022 05:06 10,8 C 10,6 C 94 % 1016,7 hPa 0,0 l/m 3,7 km/h (1 Bft) S 175 0 min 0,0 UV-I 0 W/m 9,9 C 10,8 C 4,8 km/h (1 Bft)
14.10.2022 05:09 10,8 C 10,6 C 94 % 1016,6 hPa 0,0 l/m 4,3 km/h (1 Bft) S 186 0 min 0,0 UV-I 0 W/m 9,9 C 10,8 C 8,0 km/h (2 Bft)
14.10.2022 05:12 10,8 C 10,6 C 94 % 1016,6 hPa 0,0 l/m 8,3 km/h (2 Bft) S-SO 167 0 min 0,0 UV-I 0 W/m 9,9 C 9,5 C 12,9 km/h (3 Bft)
14.10.2022 05:15 10,8 C 10,6 C 94 % 1016,6 hPa 0,0 l/m 6,3 km/h (2 Bft) S-SO 157 0 min 0,0 UV-I 0 W/m 9,9 C 10,8 C 11,3 km/h (2 Bft)
14.10.2022 05:18 10,8 C 10,6 C 94 % 1016,5 hPa 0,0 l/m 3,9 km/h (1 Bft) S-SO 167 0 min 0,0 UV-I 0 W/m 9,9 C 10,8 C 8,0 km/h (2 Bft)
14.10.2022 05:21 10,8 C 10,6 C 94 % 1016,6 hPa 0,0 l/m 6,4 km/h (2 Bft) S-SO 154 0 min 0,0 UV-I 0 W/m 9,9 C 10,8 C 14,5 km/h (3 Bft)
14.10.2022 05:24 10,8 C 10,6 C 94 % 1016,5 hPa 0,0 l/m 2,5 km/h (1 Bft) S-SO 154 0 min 0,0 UV-I 0 W/m 9,9 C 10,8 C 4,8 km/h (1 Bft)
14.10.2022 05:27 10,8 C 10,6 C 94 % 1016,6 hPa 0,0 l/m 2,7 km/h (1 Bft) S-SO 155 0 min 0,0 UV-I 0 W/m 9,9 C 10,8 C 4,8 km/h (1 Bft)
14.10.2022 05:30 10,8 C 10,6 C 94 % 1016,6 hPa 0,0 l/m 4,4 km/h (1 Bft) S-SO 159 0 min 0,0 UV-I 0 W/m 9,9 C 10,8 C 8,0 km/h (2 Bft)
14.10.2022 05:33 10,8 C 10,6 C 94 % 1016,4 hPa 0,0 l/m 5,2 km/h (1 Bft) SO 146 0 min 0,0 UV-I 0 W/m 9,9 C 10,8 C 8,0 km/h (2 Bft)
14.10.2022 05:36 10,8 C 10,6 C 94 % 1016,2 hPa 0,0 l/m 7,4 km/h (2 Bft) SO 144 0 min 0,0 UV-I 0 W/m 9,9 C 10,1 C 12,9 km/h (3 Bft)
14.10.2022 05:39 10,8 C 10,6 C 94 % 1016,3 hPa 0,0 l/m 6,6 km/h (2 Bft) S-SO 158 0 min 0,0 UV-I 0 W/m 9,9 C 10,7 C 11,3 km/h (2 Bft)
14.10.2022 05:42 10,8 C 10,6 C 94 % 1016,3 hPa 0,0 l/m 6,8 km/h (2 Bft) SO 134 0 min 0,0 UV-I 0 W/m 9,9 C 10,5 C 11,3 km/h (2 Bft)
14.10.2022 05:45 10,8 C 10,6 C 94 % 1016,2 hPa 0,0 l/m 6,0 km/h (2 Bft) SO 146 0 min 0,0 UV-I 0 W/m 9,9 C 10,8 C 11,3 km/h (2 Bft)
14.10.2022 05:48 10,8 C 10,6 C 94 % 1016,1 hPa 0,0 l/m 4,7 km/h (1 Bft) SO 139 0 min 0,0 UV-I 0 W/m 9,9 C 10,8 C 8,0 km/h (2 Bft)
14.10.2022 05:51 10,8 C 10,6 C 94 % 1016,1 hPa 0,0 l/m 6,8 km/h (2 Bft) S-SO 152 0 min 0,0 UV-I 0 W/m 9,9 C 10,5 C 11,3 km/h (2 Bft)
14.10.2022 05:54 10,8 C 10,6 C 94 % 1016,1 hPa 0,0 l/m 6,1 km/h (2 Bft) SO 146 0 min 0,0 UV-I 0 W/m 9,9 C 10,8 C 12,9 km/h (3 Bft)
14.10.2022 05:57 10,8 C 10,6 C 94 % 1016,0 hPa 0,0 l/m 4,2 km/h (1 Bft) SO 138 0 min 0,0 UV-I 0 W/m 9,9 C 10,8 C 9,7 km/h (2 Bft)
14.10.2022 06:00 10,8 C 10,6 C 94 % 1015,9 hPa 0,0 l/m 5,0 km/h (1 Bft) O-SO 114 0 min 0,0 UV-I 0 W/m 9,9 C 10,8 C 11,3 km/h (2 Bft)
14.10.2022 06:03 10,8 C 10,6 C 94 % 1015,9 hPa 0,0 l/m 6,1 km/h (2 Bft) SO 141 0 min 0,0 UV-I 0 W/m 9,9 C 10,8 C 11,3 km/h (2 Bft)
14.10.2022 06:06 10,8 C 10,6 C 94 % 1015,9 hPa 0,0 l/m 6,4 km/h (2 Bft) SO 146 0 min 0,0 UV-I 0 W/m 9,9 C 10,8 C 11,3 km/h (2 Bft)
14.10.2022 06:09 10,8 C 10,6 C 94 % 1016,1 hPa 0,0 l/m 7,2 km/h (2 Bft) SO 130 0 min 0,0 UV-I 0 W/m 9,9 C 10,2 C 11,3 km/h (2 Bft)
14.10.2022 06:12 10,8 C 10,6 C 94 % 1016,1 hPa 0,0 l/m 5,9 km/h (2 Bft) SO 142 0 min 0,0 UV-I 0 W/m 9,9 C 10,8 C 11,3 km/h (2 Bft)
14.10.2022 06:15 10,8 C 10,6 C 94 % 1016,1 hPa 0,0 l/m 4,6 km/h (1 Bft) SO 146 0 min 0,0 UV-I 0 W/m 9,9 C 10,8 C 8,0 km/h (2 Bft)
14.10.2022 06:18 10,8 C 10,6 C 94 % 1015,9 hPa 0,0 l/m 4,3 km/h (1 Bft) S-SO 147 0 min 0,0 UV-I 0 W/m 9,9 C 10,8 C 8,0 km/h (2 Bft)
14.10.2022 06:21 10,8 C 10,6 C 94 % 1016,0 hPa 0,0 l/m 5,2 km/h (1 Bft) S 172 0 min 0,0 UV-I 0 W/m 9,9 C 10,8 C 11,3 km/h (2 Bft)
14.10.2022 06:24 10,8 C 10,6 C 94 % 1015,9 hPa 0,0 l/m 5,1 km/h (1 Bft) SO 136 0 min 0,0 UV-I 0 W/m 9,9 C 10,8 C 8,0 km/h (2 Bft)
14.10.2022 06:27 10,8 C 10,6 C 94 % 1015,9 hPa 0,0 l/m 7,0 km/h (2 Bft) SO 143 0 min 0,0 UV-I 0 W/m 9,9 C 10,4 C 12,9 km/h (3 Bft)
14.10.2022 06:30 10,8 C 10,6 C 94 % 1015,7 hPa 0,0 l/m 7,6 km/h (2 Bft) S-SO 151 0 min 0,0 UV-I 0 W/m 9,9 C 10,0 C 12,9 km/h (3 Bft)
14.10.2022 06:33 10,8 C 10,6 C 94 % 1015,8 hPa 0,0 l/m 7,8 km/h (2 Bft) S-SO 148 0 min 0,0 UV-I 0 W/m 9,9 C 9,8 C 14,5 km/h (3 Bft)
14.10.2022 06:36 10,8 C 10,6 C 94 % 1015,8 hPa 0,0 l/m 4,4 km/h (1 Bft) O-SO 113 0 min 0,0 UV-I 0 W/m 9,9 C 10,8 C 9,7 km/h (2 Bft)
14.10.2022 06:39 10,8 C 10,6 C 94 % 1015,8 hPa 0,0 l/m 6,0 km/h (2 Bft) S-SO 163 0 min 0,0 UV-I 0 W/m 9,9 C 10,8 C 11,3 km/h (2 Bft)
14.10.2022 06:42 10,8 C 10,6 C 94 % 1015,8 hPa 0,0 l/m 7,0 km/h (2 Bft) S-SO 167 0 min 0,0 UV-I 0 W/m 9,9 C 10,4 C 14,5 km/h (3 Bft)
14.10.2022 06:45 10,8 C 10,6 C 94 % 1015,8 hPa 0,0 l/m 6,2 km/h (2 Bft) SO 146 0 min 0,0 UV-I 0 W/m 9,9 C 10,8 C 11,3 km/h (2 Bft)
14.10.2022 06:48 10,8 C 10,6 C 94 % 1015,8 hPa 0,0 l/m 5,0 km/h (1 Bft) SO 126 0 min 0,0 UV-I 0 W/m 9,9 C 10,8 C 9,7 km/h (2 Bft)
14.10.2022 06:51 10,8 C 10,6 C 94 % 1015,8 hPa 0,0 l/m 6,3 km/h (2 Bft) SO 138 0 min 0,0 UV-I 0 W/m 9,9 C 10,8 C 11,3 km/h (2 Bft)
14.10.2022 06:54 10,8 C 10,6 C 94 % 1015,8 hPa 0,0 l/m 5,9 km/h (2 Bft) SO 132 0 min 0,0 UV-I 0 W/m 9,9 C 10,8 C 9,7 km/h (2 Bft)
14.10.2022 06:57 10,8 C 10,6 C 94 % 1015,7 hPa 0,0 l/m 6,3 km/h (2 Bft) SO 132 0 min 0,0 UV-I 0 W/m 9,9 C 10,8 C 11,3 km/h (2 Bft)
14.10.2022 07:00 10,8 C 10,6 C 94 % 1015,7 hPa 0,0 l/m 5,5 km/h (1 Bft) SO 139 0 min 0,0 UV-I 0 W/m 9,9 C 10,8 C 11,3 km/h (2 Bft)
14.10.2022 07:01 10,8 C 10,6 C 94 % 1015,8 hPa 0,0 l/m 4,8 km/h (1 Bft) SO 135 0 min 0,0 UV-I 0 W/m 9,9 C 10,8 C 6,4 km/h (2 Bft)
14.10.2022 07:03 10,8 C 10,6 C 94 % 1015,8 hPa 0,0 l/m 9,9 km/h (2 Bft) SO 137 0 min 0,0 UV-I 0 W/m 9,9 C 8,5 C 14,5 km/h (3 Bft)
14.10.2022 07:06 10,8 C 10,6 C 94 % 1015,7 hPa 0,0 l/m 8,0 km/h (2 Bft) S-SO 166 0 min 0,0 UV-I 0 W/m 9,9 C 9,7 C 16,1 km/h (3 Bft)
14.10.2022 07:09 10,8 C 10,6 C 94 % 1015,7 hPa 0,0 l/m 7,1 km/h (2 Bft) O-SO 120 0 min 0,0 UV-I 0 W/m 9,9 C 10,3 C 11,3 km/h (2 Bft)
14.10.2022 07:12 10,8 C 10,6 C 94 % 1015,7 hPa 0,0 l/m 6,8 km/h (2 Bft) SO 135 0 min 0,0 UV-I 0 W/m 9,9 C 10,5 C 11,3 km/h (2 Bft)
14.10.2022 07:15 10,8 C 10,6 C 94 % 1015,6 hPa 0,0 l/m 6,7 km/h (2 Bft) SO 144 0 min 0,0 UV-I 0 W/m 9,9 C 10,6 C 12,9 km/h (3 Bft)
14.10.2022 07:18 10,8 C 10,6 C 94 % 1015,5 hPa 0,0 l/m 4,8 km/h (1 Bft) SO 137 0 min 0,0 UV-I 0 W/m 9,9 C 10,8 C 9,7 km/h (2 Bft)
14.10.2022 07:21 10,8 C 10,6 C 94 % 1015,5 hPa 0,0 l/m 7,0 km/h (2 Bft) S-SO 165 0 min 0,0 UV-I 0 W/m 9,9 C 10,4 C 11,3 km/h (2 Bft)
14.10.2022 07:24 10,8 C 10,6 C 94 % 1015,4 hPa 0,2 l/m 4,0 km/h (1 Bft) S-SO 147 0 min 0,0 UV-I 0 W/m 9,9 C 10,8 C 8,0 km/h (2 Bft)
14.10.2022 07:27 10,8 C 10,6 C 94 % 1015,4 hPa 0,0 l/m 5,1 km/h (1 Bft) SO 130 0 min 0,0 UV-I 0 W/m 9,9 C 10,8 C 11,3 km/h (2 Bft)
14.10.2022 07:30 10,8 C 10,6 C 94 % 1015,4 hPa 0,0 l/m 5,0 km/h (1 Bft) SO 140 0 min 0,0 UV-I 0 W/m 9,9 C 10,8 C 9,7 km/h (2 Bft)
14.10.2022 07:33 10,8 C 10,6 C 94 % 1015,3 hPa 0,0 l/m 5,9 km/h (2 Bft) SO 135 0 min 0,0 UV-I 0 W/m 9,9 C 10,8 C 9,7 km/h (2 Bft)
14.10.2022 07:36 10,8 C 10,6 C 94 % 1015,4 hPa 0,0 l/m 5,6 km/h (1 Bft) S-SO 163 0 min 0,0 UV-I 0 W/m 9,9 C 10,8 C 9,7 km/h (2 Bft)
14.10.2022 07:39 10,8 C 10,6 C 94 % 1015,3 hPa 0,0 l/m 6,6 km/h (2 Bft) SO 142 0 min 0,0 UV-I 0 W/m 9,9 C 10,7 C 12,9 km/h (3 Bft)
14.10.2022 07:42 10,8 C 10,6 C 94 % 1015,3 hPa 0,0 l/m 6,9 km/h (2 Bft) S-SO 166 0 min 0,0 UV-I 0 W/m 9,9 C 10,5 C 9,7 km/h (2 Bft)
14.10.2022 07:45 10,8 C 10,6 C 94 % 1015,3 hPa 0,0 l/m 5,3 km/h (1 Bft) S 173 0 min 0,0 UV-I 0 W/m 9,9 C 10,8 C 8,0 km/h (2 Bft)
14.10.2022 07:48 10,9 C 10,6 C 94 % 1015,4 hPa 0,0 l/m 5,3 km/h (1 Bft) S 171 0 min 0,0 UV-I 0 W/m 10,0 C 10,9 C 11,3 km/h (2 Bft)
14.10.2022 07:51 10,9 C 10,6 C 94 % 1015,4 hPa 0,0 l/m 5,7 km/h (1 Bft) S 178 0 min 0,0 UV-I 0 W/m 10,0 C 10,9 C 11,3 km/h (2 Bft)
14.10.2022 07:54 10,9 C 10,6 C 94 % 1015,4 hPa 0,0 l/m 5,1 km/h (1 Bft) S-SO 165 0 min 0,0 UV-I 0 W/m 10,0 C 10,9 C 8,0 km/h (2 Bft)
14.10.2022 07:57 10,9 C 10,6 C 94 % 1015,4 hPa 0,0 l/m 5,9 km/h (2 Bft) S-SO 157 0 min 0,0 UV-I 0 W/m 10,0 C 10,9 C 11,3 km/h (2 Bft)
14.10.2022 08:00 10,9 C 10,6 C 94 % 1015,4 hPa 0,0 l/m 4,7 km/h (1 Bft) S 188 0 min 0,0 UV-I 0 W/m 10,0 C 10,9 C 9,7 km/h (2 Bft)
14.10.2022 08:03 10,9 C 10,6 C 94 % 1015,2 hPa 0,0 l/m 5,2 km/h (1 Bft) S-SO 163 0 min 0,0 UV-I 0 W/m 10,0 C 10,9 C 8,0 km/h (2 Bft)
14.10.2022 08:09 10,9 C 10,6 C 94 % 1015,2 hPa 0,0 l/m 5,6 km/h (1 Bft) S-SO 154 0 min 0,0 UV-I 0 W/m 10,0 C 10,9 C 11,3 km/h (2 Bft)
14.10.2022 08:12 10,9 C 10,6 C 94 % 1015,2 hPa 0,0 l/m 6,9 km/h (2 Bft) S 188 0 min 0,0 UV-I 3 W/m 10,0 C 10,6 C 12,9 km/h (3 Bft)
14.10.2022 08:15 11,0 C 10,6 C 94 % 1015,1 hPa 0,0 l/m 5,8 km/h (2 Bft) S-SO 163 0 min 0,0 UV-I 5 W/m 10,1 C 11,0 C 8,0 km/h (2 Bft)
14.10.2022 08:18 11,0 C 10,6 C 94 % 1015,1 hPa 0,0 l/m 8,1 km/h (2 Bft) SO 141 0 min 0,0 UV-I 5 W/m 10,1 C 9,8 C 12,9 km/h (3 Bft)
14.10.2022 08:21 11,0 C 10,6 C 94 % 1015,2 hPa 0,0 l/m 6,3 km/h (2 Bft) S-SO 155 0 min 0,0 UV-I 5 W/m 10,1 C 11,0 C 11,3 km/h (2 Bft)
14.10.2022 08:24 11,0 C 10,6 C 94 % 1015,1 hPa 0,0 l/m 4,3 km/h (1 Bft) S-SO 150 0 min 0,0 UV-I 5 W/m 10,1 C 11,0 C 8,0 km/h (2 Bft)
14.10.2022 08:27 11,0 C 10,6 C 94 % 1015,1 hPa 0,0 l/m 4,4 km/h (1 Bft) SO 134 0 min 0,0 UV-I 7 W/m 10,1 C 11,0 C 8,0 km/h (2 Bft)
14.10.2022 08:30 11,0 C 10,6 C 94 % 1015,1 hPa 0,0 l/m 4,3 km/h (1 Bft) S-SO 163 0 min 0,0 UV-I 11 W/m 10,1 C 11,0 C 8,0 km/h (2 Bft)
14.10.2022 08:33 11,1 C 10,6 C 94 % 1015,0 hPa 0,0 l/m 5,3 km/h (1 Bft) S-SO 166 0 min 0,0 UV-I 15 W/m 10,2 C 11,1 C 9,7 km/h (2 Bft)
14.10.2022 08:36 11,1 C 10,6 C 94 % 1015,0 hPa 0,0 l/m 5,0 km/h (1 Bft) S-SO 147 0 min 0,0 UV-I 18 W/m 10,2 C 11,1 C 11,3 km/h (2 Bft)
14.10.2022 08:39 11,1 C 10,6 C 94 % 1015,0 hPa 0,0 l/m 3,0 km/h (1 Bft) S-SO 159 0 min 0,0 UV-I 20 W/m 10,2 C 11,1 C 4,8 km/h (1 Bft)
14.10.2022 08:42 11,1 C 11,1 C 94 % 1015,1 hPa 0,0 l/m 3,6 km/h (1 Bft) S-SO 147 0 min 0,0 UV-I 23 W/m 10,2 C 11,1 C 8,0 km/h (2 Bft)
14.10.2022 08:45 11,1 C 10,6 C 94 % 1014,9 hPa 0,0 l/m 6,1 km/h (2 Bft) S 180 0 min 0,0 UV-I 25 W/m 10,2 C 11,1 C 11,3 km/h (2 Bft)
14.10.2022 08:48 11,1 C 11,1 C 94 % 1014,9 hPa 0,0 l/m 3,3 km/h (1 Bft) SO 146 0 min 0,0 UV-I 22 W/m 10,2 C 11,1 C 6,4 km/h (2 Bft)
14.10.2022 08:51 11,2 C 11,1 C 94 % 1014,9 hPa 0,0 l/m 3,6 km/h (1 Bft) SO 138 0 min 0,0 UV-I 21 W/m 10,3 C 11,2 C 6,4 km/h (2 Bft)
14.10.2022 08:54 11,1 C 11,1 C 94 % 1014,9 hPa 0,0 l/m 4,9 km/h (1 Bft) O-SO 122 0 min 0,0 UV-I 19 W/m 10,2 C 11,1 C 8,0 km/h (2 Bft)
14.10.2022 08:57 11,1 C 11,1 C 94 % 1014,9 hPa 0,0 l/m 5,7 km/h (1 Bft) O-SO 117 0 min 0,0 UV-I 21 W/m 10,2 C 11,1 C 9,7 km/h (2 Bft)
14.10.2022 09:00 11,2 C 11,1 C 94 % 1014,9 hPa 0,0 l/m 6,3 km/h (2 Bft) SO 128 0 min 0,0 UV-I 21 W/m 10,3 C 11,2 C 11,3 km/h (2 Bft)
14.10.2022 09:03 11,1 C 11,1 C 94 % 1014,8 hPa 0,0 l/m 9,0 km/h (2 Bft) O-SO 117 0 min 0,0 UV-I 21 W/m 10,2 C 9,4 C 12,9 km/h (3 Bft)
14.10.2022 09:06 11,2 C 11,1 C 94 % 1014,9 hPa 0,0 l/m 7,3 km/h (2 Bft) O-SO 119 0 min 0,0 UV-I 25 W/m 10,3 C 10,6 C 11,3 km/h (2 Bft)
14.10.2022 09:09 11,2 C 11,1 C 94 % 1014,8 hPa 0,0 l/m 6,5 km/h (2 Bft) SO 139 0 min 0,0 UV-I 25 W/m 10,3 C 11,2 C 14,5 km/h (3 Bft)
14.10.2022 09:12 11,2 C 11,1 C 94 % 1014,9 hPa 0,0 l/m 6,3 km/h (2 Bft) S 180 0 min 0,0 UV-I 25 W/m 10,3 C 11,2 C 11,3 km/h (2 Bft)
14.10.2022 09:15 11,2 C 11,1 C 94 % 1015,0 hPa 0,0 l/m 7,8 km/h (2 Bft) SO 137 0 min 0,0 UV-I 25 W/m 10,3 C 10,2 C 14,5 km/h (3 Bft)
14.10.2022 09:18 11,2 C 11,1 C 94 % 1014,9 hPa 0,0 l/m 7,6 km/h (2 Bft) S 173 0 min 0,0 UV-I 23 W/m 10,3 C 10,4 C 12,9 km/h (3 Bft)
14.10.2022 09:21 11,2 C 11,1 C 94 % 1014,9 hPa 0,0 l/m 4,9 km/h (1 Bft) SO 146 0 min 0,0 UV-I 24 W/m 10,3 C 11,2 C 8,0 km/h (2 Bft)
14.10.2022 09:24 11,2 C 11,1 C 94 % 1014,8 hPa 0,0 l/m 6,5 km/h (2 Bft) SO 140 0 min 0,0 UV-I 26 W/m 10,3 C 11,2 C 11,3 km/h (2 Bft)
14.10.2022 09:27 11,2 C 11,1 C 94 % 1014,9 hPa 0,0 l/m 8,0 km/h (2 Bft) SO 142 0 min 0,0 UV-I 30 W/m 10,3 C 10,1 C 12,9 km/h (3 Bft)
14.10.2022 09:30 11,3 C 11,1 C 94 % 1014,9 hPa 0,0 l/m 5,6 km/h (1 Bft) SO 138 0 min 0,0 UV-I 37 W/m 10,4 C 11,3 C 11,3 km/h (2 Bft)
14.10.2022 09:33 11,3 C 11,1 C 94 % 1014,8 hPa 0,0 l/m 7,2 km/h (2 Bft) SO 146 0 min 0,0 UV-I 48 W/m 10,4 C 10,8 C 12,9 km/h (3 Bft)
14.10.2022 09:36 11,3 C 11,1 C 94 % 1014,9 hPa 0,0 l/m 6,8 km/h (2 Bft) SO 144 0 min 0,0 UV-I 58 W/m 10,4 C 11,0 C 12,9 km/h (3 Bft)
14.10.2022 09:39 11,4 C 11,1 C 94 % 1014,8 hPa 0,0 l/m 7,5 km/h (2 Bft) S 173 0 min 0,0 UV-I 55 W/m 10,5 C 10,7 C 12,9 km/h (3 Bft)
14.10.2022 09:42 11,4 C 11,1 C 94 % 1014,8 hPa 0,0 l/m 5,1 km/h (1 Bft) S-SO 155 0 min 0,0 UV-I 49 W/m 10,5 C 11,4 C 9,7 km/h (2 Bft)
14.10.2022 09:45 11,4 C 11,1 C 94 % 1014,8 hPa 0,0 l/m 8,2 km/h (2 Bft) SO 146 0 min 0,0 UV-I 50 W/m 10,5 C 10,2 C 14,5 km/h (3 Bft)
14.10.2022 09:48 11,4 C 11,1 C 94 % 1014,8 hPa 0,0 l/m 7,8 km/h (2 Bft) S-SO 152 0 min 0,0 UV-I 53 W/m 10,5 C 10,5 C 11,3 km/h (2 Bft)
14.10.2022 09:51 11,4 C 11,1 C 94 % 1014,7 hPa 0,0 l/m 7,4 km/h (2 Bft) SO 135 0 min 0,0 UV-I 60 W/m 10,5 C 10,7 C 14,5 km/h (3 Bft)
14.10.2022 09:54 11,6 C 11,1 C 94 % 1014,6 hPa 0,0 l/m 5,9 km/h (2 Bft) S-SO 157 0 min 0,0 UV-I 62 W/m 10,7 C 11,6 C 12,9 km/h (3 Bft)
14.10.2022 09:57 11,6 C 11,7 C 94 % 1014,6 hPa 0,0 l/m 7,3 km/h (2 Bft) SO 135 0 min 0,0 UV-I 64 W/m 10,7 C 11,0 C 14,5 km/h (3 Bft)
14.10.2022 10:00 11,6 C 11,7 C 94 % 1014,8 hPa 0,0 l/m 5,3 km/h (1 Bft) S-SO 147 0 min 0,0 UV-I 60 W/m 10,7 C 11,6 C 9,7 km/h (2 Bft)
14.10.2022 10:03 11,6 C 11,1 C 94 % 1014,6 hPa 0,0 l/m 9,6 km/h (2 Bft) SO 138 0 min 0,0 UV-I 52 W/m 10,7 C 9,6 C 16,1 km/h (3 Bft)
14.10.2022 10:06 11,6 C 11,7 C 94 % 1014,7 hPa 0,0 l/m 8,2 km/h (2 Bft) S-SO 161 0 min 0,0 UV-I 51 W/m 10,7 C 10,4 C 16,1 km/h (3 Bft)
14.10.2022 10:09 11,7 C 11,7 C 94 % 1014,7 hPa 0,0 l/m 6,2 km/h (2 Bft) S-SO 157 0 min 0,0 UV-I 52 W/m 10,8 C 11,7 C 9,7 km/h (2 Bft)
14.10.2022 10:12 11,7 C 11,7 C 94 % 1014,7 hPa 0,0 l/m 7,5 km/h (2 Bft) S-SO 163 0 min 0,0 UV-I 51 W/m 10,8 C 11,0 C 14,5 km/h (3 Bft)
14.10.2022 10:15 11,7 C 11,7 C 94 % 1014,7 hPa 0,0 l/m 6,5 km/h (2 Bft) S 169 0 min 0,0 UV-I 54 W/m 10,8 C 11,7 C 12,9 km/h (3 Bft)
14.10.2022 10:18 11,7 C 11,7 C 94 % 1014,6 hPa 0,0 l/m 9,1 km/h (2 Bft) S-SO 156 0 min 0,0 UV-I 60 W/m 10,8 C 10,0 C 16,1 km/h (3 Bft)
14.10.2022 10:21 11,6 C 11,7 C 94 % 1014,6 hPa 0,0 l/m 7,8 km/h (2 Bft) SO 134 0 min 0,0 UV-I 61 W/m 10,7 C 10,7 C 14,5 km/h (3 Bft)
14.10.2022 10:24 11,7 C 11,7 C 94 % 1014,6 hPa 0,0 l/m 9,8 km/h (2 Bft) S-SO 149 0 min 0,0 UV-I 62 W/m 10,8 C 9,6 C 16,1 km/h (3 Bft)
14.10.2022 10:27 11,7 C 11,7 C 94 % 1014,5 hPa 0,0 l/m 9,8 km/h (2 Bft) S-SO 167 0 min 0,0 UV-I 64 W/m 10,8 C 9,6 C 16,1 km/h (3 Bft)
14.10.2022 10:30 11,7 C 11,7 C 94 % 1014,6 hPa 0,0 l/m 10,1 km/h (2 Bft) S-SO 152 0 min 0,0 UV-I 63 W/m 10,8 C 9,4 C 17,7 km/h (3 Bft)
14.10.2022 10:33 11,7 C 11,7 C 94 % 1014,5 hPa 0,0 l/m 6,8 km/h (2 Bft) SO 135 0 min 0,0 UV-I 55 W/m 10,8 C 11,4 C 11,3 km/h (2 Bft)
14.10.2022 10:36 11,7 C 11,7 C 94 % 1014,5 hPa 0,0 l/m 11,8 km/h (2 Bft) S-SW 201 0 min 0,0 UV-I 49 W/m 10,8 C 8,6 C 17,7 km/h (3 Bft)
14.10.2022 10:39 11,7 C 11,7 C 94 % 1014,5 hPa 0,0 l/m 10,8 km/h (2 Bft) SO 144 0 min 0,0 UV-I 49 W/m 10,8 C 9,1 C 19,3 km/h (3 Bft)
14.10.2022 10:42 11,7 C 11,7 C 94 % 1014,6 hPa 0,0 l/m 9,7 km/h (2 Bft) S 175 0 min 0,0 UV-I 51 W/m 10,8 C 9,6 C 14,5 km/h (3 Bft)
14.10.2022 10:45 11,7 C 11,7 C 94 % 1014,5 hPa 0,0 l/m 10,8 km/h (2 Bft) S-SW 197 0 min 0,0 UV-I 55 W/m 10,8 C 9,1 C 19,3 km/h (3 Bft)
14.10.2022 10:48 11,7 C 11,7 C 94 % 1014,4 hPa 0,0 l/m 9,4 km/h (2 Bft) S-SO 147 0 min 0,0 UV-I 57 W/m 10,8 C 9,8 C 17,7 km/h (3 Bft)
14.10.2022 10:51 11,8 C 11,7 C 94 % 1014,5 hPa 0,0 l/m 9,7 km/h (2 Bft) S-SO 159 0 min 0,0 UV-I 61 W/m 10,9 C 9,7 C 17,7 km/h (3 Bft)
14.10.2022 10:54 11,8 C 11,7 C 94 % 1014,5 hPa 0,0 l/m 6,8 km/h (2 Bft) SO 140 0 min 0,0 UV-I 61 W/m 10,9 C 11,5 C 12,9 km/h (3 Bft)
14.10.2022 10:57 11,8 C 11,7 C 94 % 1014,4 hPa 0,0 l/m 5,9 km/h (2 Bft) SO 137 0 min 0,0 UV-I 62 W/m 10,9 C 11,8 C 14,5 km/h (3 Bft)
14.10.2022 11:00 11,8 C 11,7 C 94 % 1014,4 hPa 0,0 l/m 7,9 km/h (2 Bft) S-SO 158 0 min 0,0 UV-I 63 W/m 10,9 C 10,8 C 17,7 km/h (3 Bft)
14.10.2022 11:03 11,8 C 11,7 C 94 % 1014,4 hPa 0,0 l/m 14,2 km/h (3 Bft) O-SO 117 0 min 0,0 UV-I 59 W/m 10,9 C 7,6 C 19,3 km/h (3 Bft)
14.10.2022 11:06 11,8 C 11,7 C 94 % 1014,2 hPa 0,0 l/m 7,7 km/h (2 Bft) SO 138 0 min 0,0 UV-I 59 W/m 10,9 C 10,9 C 12,9 km/h (3 Bft)
14.10.2022 11:09 11,8 C 11,7 C 94 % 1014,3 hPa 0,0 l/m 10,7 km/h (2 Bft) SO 146 0 min 0,0 UV-I 62 W/m 10,9 C 9,2 C 19,3 km/h (3 Bft)
14.10.2022 11:12 11,8 C 11,7 C 94 % 1014,3 hPa 0,0 l/m 8,2 km/h (2 Bft) S 178 0 min 0,0 UV-I 53 W/m 10,9 C 10,6 C 12,9 km/h (3 Bft)
14.10.2022 11:15 11,8 C 11,7 C 94 % 1014,3 hPa 0,0 l/m 9,3 km/h (2 Bft) S 171 0 min 0,0 UV-I 43 W/m 10,9 C 10,0 C 17,7 km/h (3 Bft)
14.10.2022 11:18 11,8 C 11,7 C 94 % 1014,3 hPa 0,0 l/m 5,4 km/h (1 Bft) S 169 0 min 0,0 UV-I 38 W/m 10,9 C 11,8 C 9,7 km/h (2 Bft)
14.10.2022 11:21 11,9 C 11,7 C 94 % 1014,3 hPa 0,0 l/m 7,8 km/h (2 Bft) SO 126 0 min 0,0 UV-I 40 W/m 11,0 C 11,0 C 14,5 km/h (3 Bft)
14.10.2022 11:24 11,9 C 11,7 C 94 % 1014,3 hPa 0,0 l/m 5,7 km/h (1 Bft) S-SO 166 0 min 0,0 UV-I 44 W/m 11,0 C 11,9 C 11,3 km/h (2 Bft)
14.10.2022 11:27 11,9 C 11,7 C 94 % 1014,2 hPa 0,0 l/m 5,7 km/h (1 Bft) S-SO 164 0 min 0,0 UV-I 49 W/m 11,0 C 11,9 C 11,3 km/h (2 Bft)
14.10.2022 11:30 11,9 C 11,7 C 94 % 1014,2 hPa 0,0 l/m 8,6 km/h (2 Bft) SO 140 0 min 0,0 UV-I 55 W/m 11,0 C 10,5 C 19,3 km/h (3 Bft)
14.10.2022 11:33 11,9 C 11,7 C 94 % 1014,2 hPa 0,0 l/m 6,1 km/h (2 Bft) S-SO 157 0 min 0,0 UV-I 63 W/m 11,0 C 11,9 C 14,5 km/h (3 Bft)
14.10.2022 11:36 11,9 C 11,7 C 94 % 1014,1 hPa 0,0 l/m 9,7 km/h (2 Bft) O-SO 117 0 min 0,0 UV-I 61 W/m 11,0 C 9,9 C 14,5 km/h (3 Bft)
14.10.2022 11:39 11,9 C 11,7 C 94 % 1014,1 hPa 0,0 l/m 8,4 km/h (2 Bft) S-SO 167 0 min 0,0 UV-I 62 W/m 11,0 C 10,6 C 16,1 km/h (3 Bft)
14.10.2022 11:42 12,0 C 11,7 C 94 % 1014,1 hPa 0,0 l/m 6,3 km/h (2 Bft) SO 144 0 min 0,5 UV-I 72 W/m 11,1 C 12,0 C 12,9 km/h (3 Bft)
14.10.2022 11:45 12,0 C 11,7 C 94 % 1014,1 hPa 0,0 l/m 9,2 km/h (2 Bft) SO 142 0 min 0,4 UV-I 72 W/m 11,1 C 10,2 C 17,7 km/h (3 Bft)
14.10.2022 11:48 12,1 C 11,7 C 94 % 1014,1 hPa 0,0 l/m 5,3 km/h (1 Bft) O-SO 117 0 min 0,5 UV-I 70 W/m 11,2 C 12,1 C 11,3 km/h (2 Bft)
14.10.2022 11:51 12,1 C 11,7 C 94 % 1014,1 hPa 0,0 l/m 6,4 km/h (2 Bft) SO 138 0 min 0,5 UV-I 72 W/m 11,2 C 12,1 C 11,3 km/h (2 Bft)
14.10.2022 11:54 12,1 C 11,7 C 94 % 1014,1 hPa 0,0 l/m 8,4 km/h (2 Bft) S-SO 147 0 min 0,2 UV-I 67 W/m 11,2 C 10,8 C 12,9 km/h (3 Bft)
14.10.2022 11:57 12,1 C 11,7 C 93 % 1014,1 hPa 0,0 l/m 7,0 km/h (2 Bft) SO 142 0 min 0,0 UV-I 62 W/m 11,0 C 11,7 C 11,3 km/h (2 Bft)
14.10.2022 12:00 12,1 C 11,7 C 94 % 1014,1 hPa 0,2 l/m 7,6 km/h (2 Bft) O-SO 121 0 min 0,3 UV-I 65 W/m 11,2 C 11,3 C 14,5 km/h (3 Bft)
14.10.2022 12:03 12,1 C 11,7 C 94 % 1014,1 hPa 0,0 l/m 8,1 km/h (2 Bft) S-SO 165 0 min 0,5 UV-I 74 W/m 11,2 C 11,0 C 12,9 km/h (3 Bft)
14.10.2022 12:06 12,2 C 11,7 C 93 % 1014,0 hPa 0,2 l/m 5,1 km/h (1 Bft) S-SO 151 0 min 0,5 UV-I 76 W/m 11,1 C 12,2 C 9,7 km/h (2 Bft)
14.10.2022 12:09 12,2 C 12,2 C 93 % 1014,0 hPa 0,2 l/m 5,3 km/h (1 Bft) SO 141 0 min 0,5 UV-I 82 W/m 11,1 C 12,2 C 14,5 km/h (3 Bft)
14.10.2022 12:12 12,2 C 12,2 C 94 % 1014,0 hPa 0,0 l/m 8,0 km/h (2 Bft) SO 128 0 min 0,7 UV-I 103 W/m 11,3 C 11,2 C 14,5 km/h (3 Bft)
14.10.2022 12:15 12,2 C 12,2 C 93 % 1013,9 hPa 0,0 l/m 5,7 km/h (1 Bft) SO 133 0 min 0,7 UV-I 106 W/m 11,1 C 12,2 C 9,7 km/h (2 Bft)
14.10.2022 12:18 12,3 C 12,8 C 94 % 1014,0 hPa 0,0 l/m 5,0 km/h (1 Bft) S 173 0 min 0,7 UV-I 106 W/m 11,4 C 12,3 C 8,0 km/h (2 Bft)
14.10.2022 12:21 12,3 C 12,8 C 94 % 1013,9 hPa 0,0 l/m 4,1 km/h (1 Bft) S-SO 153 0 min 0,7 UV-I 96 W/m 11,4 C 12,3 C 9,7 km/h (2 Bft)
14.10.2022 12:24 12,4 C 12,2 C 94 % 1013,9 hPa 0,0 l/m 5,0 km/h (1 Bft) S 175 0 min 0,6 UV-I 83 W/m 11,5 C 12,4 C 9,7 km/h (2 Bft)
14.10.2022 12:27 12,4 C 12,2 C 94 % 1013,9 hPa 0,0 l/m 6,4 km/h (2 Bft) S-SO 152 0 min 0,6 UV-I 84 W/m 11,5 C 12,4 C 12,9 km/h (3 Bft)
14.10.2022 12:30 12,4 C 12,2 C 94 % 1013,9 hPa 0,0 l/m 5,3 km/h (1 Bft) S-SW 211 0 min 0,6 UV-I 83 W/m 11,5 C 12,4 C 9,7 km/h (2 Bft)
14.10.2022 12:33 12,4 C 12,2 C 93 % 1014,0 hPa 0,0 l/m 6,4 km/h (2 Bft) SO 144 0 min 0,6 UV-I 82 W/m 11,3 C 12,4 C 11,3 km/h (2 Bft)
14.10.2022 12:36 12,4 C 12,2 C 93 % 1013,7 hPa 0,0 l/m 6,7 km/h (2 Bft) S-SO 161 0 min 0,6 UV-I 79 W/m 11,3 C 12,2 C 11,3 km/h (2 Bft)
14.10.2022 12:39 12,4 C 12,2 C 93 % 1013,7 hPa 0,0 l/m 4,8 km/h (1 Bft) S 179 0 min 0,6 UV-I 77 W/m 11,3 C 12,4 C 9,7 km/h (2 Bft)
14.10.2022 12:42 12,5 C 12,2 C 93 % 1013,6 hPa 0,0 l/m 6,2 km/h (2 Bft) S-SO 155 0 min 0,6 UV-I 79 W/m 11,4 C 12,5 C 9,7 km/h (2 Bft)
14.10.2022 12:45 12,5 C 12,2 C 93 % 1013,6 hPa 0,0 l/m 6,7 km/h (2 Bft) SO 144 0 min 0,7 UV-I 100 W/m 11,4 C 12,3 C 12,9 km/h (3 Bft)
14.10.2022 12:48 12,6 C 12,8 C 94 % 1013,5 hPa 0,0 l/m 5,2 km/h (1 Bft) S-SO 165 0 min 0,8 UV-I 121 W/m 11,7 C 12,6 C 8,0 km/h (2 Bft)
14.10.2022 12:51 12,6 C 12,8 C 93 % 1013,6 hPa 0,0 l/m 8,1 km/h (2 Bft) S 190 0 min 0,7 UV-I 116 W/m 11,5 C 11,5 C 12,9 km/h (3 Bft)
14.10.2022 12:54 12,6 C 12,8 C 93 % 1013,6 hPa 0,0 l/m 6,6 km/h (2 Bft) S-SO 167 0 min 0,7 UV-I 110 W/m 11,5 C 12,5 C 12,9 km/h (3 Bft)
14.10.2022 12:57 12,6 C 12,2 C 93 % 1013,5 hPa 0,0 l/m 11,5 km/h (2 Bft) S-SO 163 0 min 0,8 UV-I 110 W/m 11,5 C 9,7 C 16,1 km/h (3 Bft)
14.10.2022 13:00 12,6 C 12,8 C 93 % 1013,6 hPa 0,0 l/m 7,9 km/h (2 Bft) SO 132 0 min 0,8 UV-I 116 W/m 11,5 C 11,6 C 14,5 km/h (3 Bft)
14.10.2022 13:03 12,7 C 12,8 C 93 % 1013,4 hPa 0,0 l/m 11,7 km/h (2 Bft) S 190 0 min 0,8 UV-I 130 W/m 11,6 C 9,8 C 19,3 km/h (3 Bft)
14.10.2022 13:06 12,8 C 12,8 C 93 % 1013,4 hPa 0,0 l/m 7,8 km/h (2 Bft) SO 136 0 min 0,9 UV-I 149 W/m 11,7 C 11,9 C 14,5 km/h (3 Bft)
14.10.2022 13:09 12,8 C 13,3 C 93 % 1013,3 hPa 0,0 l/m 7,0 km/h (2 Bft) S 184 0 min 1,2 UV-I 199 W/m 11,7 C 12,4 C 11,3 km/h (2 Bft)
14.10.2022 13:12 12,9 C 12,8 C 93 % 1013,4 hPa 0,0 l/m 10,8 km/h (2 Bft) S 178 0 min 0,9 UV-I 150 W/m 11,8 C 10,4 C 22,5 km/h (4 Bft)
14.10.2022 13:15 12,8 C 12,8 C 93 % 1013,4 hPa 0,0 l/m 11,3 km/h (2 Bft) SW 232 0 min 0,8 UV-I 119 W/m 11,7 C 10,1 C 19,3 km/h (3 Bft)
14.10.2022 13:18 12,8 C 12,8 C 93 % 1013,5 hPa 0,0 l/m 13,0 km/h (3 Bft) S 180 0 min 0,7 UV-I 102 W/m 11,7 C 9,3 C 22,5 km/h (4 Bft)
14.10.2022 13:21 12,7 C 12,2 C 93 % 1013,4 hPa 0,0 l/m 14,2 km/h (3 Bft) S-SO 157 0 min 0,5 UV-I 86 W/m 11,6 C 8,7 C 22,5 km/h (4 Bft)
14.10.2022 13:24 12,7 C 12,2 C 93 % 1013,3 hPa 0,0 l/m 11,4 km/h (2 Bft) S 169 0 min 0,6 UV-I 89 W/m 11,6 C 9,9 C 20,9 km/h (4 Bft)
14.10.2022 13:27 12,7 C 12,8 C 93 % 1013,5 hPa 0,0 l/m 12,8 km/h (3 Bft) S 184 0 min 0,6 UV-I 90 W/m 11,6 C 9,3 C 24,1 km/h (4 Bft)
14.10.2022 13:30 12,6 C 12,2 C 93 % 1013,4 hPa 0,0 l/m 13,3 km/h (3 Bft) S 173 0 min 0,6 UV-I 84 W/m 11,5 C 9,0 C 24,1 km/h (4 Bft)
14.10.2022 13:33 12,6 C 12,2 C 93 % 1013,4 hPa 0,0 l/m 12,9 km/h (3 Bft) S-SW 198 0 min 0,5 UV-I 74 W/m 11,5 C 9,1 C 19,3 km/h (3 Bft)
14.10.2022 13:36 12,6 C 12,2 C 93 % 1013,4 hPa 0,0 l/m 13,6 km/h (3 Bft) S-SO 161 0 min 0,5 UV-I 75 W/m 11,5 C 8,8 C 24,1 km/h (4 Bft)
14.10.2022 13:39 12,7 C 12,2 C 93 % 1013,3 hPa 0,0 l/m 8,9 km/h (2 Bft) SW 217 0 min 0,5 UV-I 83 W/m 11,6 C 11,2 C 16,1 km/h (3 Bft)
14.10.2022 13:42 12,6 C 12,2 C 93 % 1013,3 hPa 0,0 l/m 12,6 km/h (3 Bft) S 182 0 min 0,6 UV-I 78 W/m 11,5 C 9,2 C 20,9 km/h (4 Bft)
14.10.2022 13:45 12,7 C 12,2 C 93 % 1013,2 hPa 0,0 l/m 11,5 km/h (2 Bft) S-SO 163 0 min 0,6 UV-I 80 W/m 11,6 C 9,8 C 19,3 km/h (3 Bft)
14.10.2022 13:48 12,7 C 12,2 C 93 % 1013,2 hPa 0,2 l/m 14,1 km/h (3 Bft) S-SO 167 0 min 0,6 UV-I 87 W/m 11,6 C 8,7 C 24,1 km/h (4 Bft)
14.10.2022 13:51 12,7 C 12,2 C 93 % 1013,3 hPa 0,0 l/m 13,1 km/h (3 Bft) S 179 0 min 0,6 UV-I 87 W/m 11,6 C 9,2 C 20,9 km/h (4 Bft)
14.10.2022 13:54 12,7 C 12,2 C 93 % 1013,3 hPa 0,0 l/m 13,7 km/h (3 Bft) S-SW 192 0 min 0,5 UV-I 80 W/m 11,6 C 8,9 C 22,5 km/h (4 Bft)
14.10.2022 13:57 12,7 C 12,2 C 93 % 1013,3 hPa 0,0 l/m 9,8 km/h (2 Bft) S 190 0 min 0,5 UV-I 76 W/m 11,6 C 10,7 C 17,7 km/h (3 Bft)
14.10.2022 14:00 12,7 C 12,2 C 93 % 1013,2 hPa 0,0 l/m 13,4 km/h (3 Bft) S-SO 167 0 min 0,5 UV-I 72 W/m 11,6 C 9,0 C 25,7 km/h (4 Bft)
14.10.2022 14:03 12,7 C 12,2 C 93 % 1013,1 hPa 0,0 l/m 11,1 km/h (2 Bft) S-SW 200 0 min 0,5 UV-I 80 W/m 11,6 C 10,0 C 19,3 km/h (3 Bft)
14.10.2022 14:06 12,7 C 12,8 C 93 % 1013,0 hPa 0,0 l/m 11,6 km/h (2 Bft) SO 142 0 min 0,6 UV-I 87 W/m 11,6 C 9,8 C 17,7 km/h (3 Bft)
14.10.2022 14:09 12,7 C 12,2 C 93 % 1013,0 hPa 0,0 l/m 13,8 km/h (3 Bft) S 190 0 min 0,6 UV-I 88 W/m 11,6 C 8,9 C 22,5 km/h (4 Bft)
14.10.2022 14:12 12,7 C 12,8 C 93 % 1013,0 hPa 0,0 l/m 13,4 km/h (3 Bft) SW 223 0 min 0,6 UV-I 85 W/m 11,6 C 9,0 C 20,9 km/h (4 Bft)
14.10.2022 14:15 12,7 C 12,8 C 93 % 1013,0 hPa 0,0 l/m 12,5 km/h (3 Bft) S 171 0 min 0,6 UV-I 90 W/m 11,6 C 9,4 C 17,7 km/h (3 Bft)
14.10.2022 14:18 12,8 C 12,8 C 93 % 1013,0 hPa 0,0 l/m 13,1 km/h (3 Bft) S-SW 207 0 min 0,6 UV-I 97 W/m 11,7 C 9,3 C 20,9 km/h (4 Bft)
14.10.2022 14:21 12,8 C 12,8 C 93 % 1012,8 hPa 0,0 l/m 13,0 km/h (3 Bft) SW 223 0 min 0,9 UV-I 146 W/m 11,7 C 9,3 C 22,5 km/h (4 Bft)
14.10.2022 14:24 12,9 C 13,3 C 93 % 1012,9 hPa 0,0 l/m 12,0 km/h (2 Bft) S-SW 193 0 min 1,1 UV-I 190 W/m 11,8 C 9,9 C 20,9 km/h (4 Bft)
14.10.2022 14:27 13,0 C 13,3 C 93 % 1012,9 hPa 0,0 l/m 12,5 km/h (3 Bft) S 184 0 min 1,2 UV-I 184 W/m 11,9 C 9,8 C 20,9 km/h (4 Bft)
14.10.2022 14:30 13,0 C 12,8 C 93 % 1012,8 hPa 0,0 l/m 14,5 km/h (3 Bft) S 177 0 min 0,9 UV-I 148 W/m 11,9 C 9,0 C 22,5 km/h (4 Bft)
14.10.2022 14:33 13,1 C 13,3 C 93 % 1012,8 hPa 0,0 l/m 12,7 km/h (3 Bft) S-SO 163 0 min 0,9 UV-I 149 W/m 12,0 C 9,8 C 20,9 km/h (4 Bft)
14.10.2022 14:36 13,1 C 13,3 C 93 % 1012,8 hPa 0,0 l/m 12,2 km/h (2 Bft) S 184 0 min 0,8 UV-I 134 W/m 12,0 C 10,0 C 24,1 km/h (4 Bft)
14.10.2022 14:39 13,1 C 12,8 C 93 % 1012,6 hPa 0,0 l/m 13,1 km/h (3 Bft) S 170 0 min 0,8 UV-I 122 W/m 12,0 C 9,6 C 24,1 km/h (4 Bft)
14.10.2022 14:42 13,1 C 13,3 C 93 % 1012,6 hPa 0,0 l/m 12,9 km/h (3 Bft) S 182 0 min 1,0 UV-I 169 W/m 12,0 C 9,7 C 19,3 km/h (3 Bft)
14.10.2022 14:45 13,2 C 13,3 C 93 % 1012,6 hPa 0,0 l/m 15,1 km/h (3 Bft) S 175 0 min 1,1 UV-I 194 W/m 12,1 C 9,0 C 24,1 km/h (4 Bft)
14.10.2022 14:48 13,3 C 13,3 C 93 % 1012,6 hPa 0,0 l/m 10,5 km/h (2 Bft) S 187 0 min 1,0 UV-I 159 W/m 12,2 C 11,0 C 17,7 km/h (3 Bft)
14.10.2022 14:51 13,3 C 13,3 C 93 % 1012,6 hPa 0,0 l/m 13,1 km/h (3 Bft) S-SW 192 0 min 1,0 UV-I 171 W/m 12,2 C 9,9 C 20,9 km/h (4 Bft)
14.10.2022 14:54 13,3 C 13,3 C 93 % 1012,6 hPa 0,0 l/m 15,2 km/h (3 Bft) S-SW 192 0 min 0,9 UV-I 144 W/m 12,2 C 9,1 C 27,4 km/h (4 Bft)
14.10.2022 14:57 13,3 C 13,3 C 93 % 1012,5 hPa 0,0 l/m 12,8 km/h (3 Bft) S 184 0 min 0,8 UV-I 136 W/m 12,2 C 10,0 C 17,7 km/h (3 Bft)
14.10.2022 15:00 13,3 C 13,3 C 93 % 1012,5 hPa 0,0 l/m 15,3 km/h (3 Bft) S 183 0 min 1,2 UV-I 195 W/m 12,2 C 9,0 C 29,0 km/h (5 Bft)
14.10.2022 15:03 13,3 C 13,3 C 93 % 1012,5 hPa 0,0 l/m 14,1 km/h (3 Bft) W-SW 238 0 min 0,9 UV-I 137 W/m 12,2 C 9,5 C 22,5 km/h (4 Bft)
14.10.2022 15:06 13,3 C 13,3 C 93 % 1012,5 hPa 0,0 l/m 15,3 km/h (3 Bft) SW 226 0 min 1,1 UV-I 158 W/m 12,2 C 9,0 C 24,1 km/h (4 Bft)
14.10.2022 15:09 13,3 C 13,3 C 93 % 1012,5 hPa 0,0 l/m 14,1 km/h (3 Bft) SW 221 0 min 1,2 UV-I 178 W/m 12,2 C 9,5 C 20,9 km/h (4 Bft)
14.10.2022 15:12 13,3 C 13,3 C 93 % 1012,5 hPa 0,0 l/m 13,9 km/h (3 Bft) S 191 0 min 1,1 UV-I 142 W/m 12,2 C 9,5 C 22,5 km/h (4 Bft)
14.10.2022 15:15 13,4 C 13,3 C 93 % 1012,5 hPa 0,0 l/m 16,1 km/h (3 Bft) SW 223 0 min 1,1 UV-I 176 W/m 12,3 C 8,9 C 25,7 km/h (4 Bft)
14.10.2022 15:18 13,4 C 13,3 C 93 % 1012,5 hPa 0,0 l/m 16,4 km/h (3 Bft) SW 215 0 min 1,2 UV-I 207 W/m 12,3 C 8,8 C 24,1 km/h (4 Bft)
14.10.2022 15:21 13,5 C 13,9 C 93 % 1012,4 hPa 0,0 l/m 12,9 km/h (3 Bft) SW 229 0 min 1,0 UV-I 186 W/m 12,4 C 10,2 C 17,7 km/h (3 Bft)
14.10.2022 15:24 13,6 C 13,9 C 93 % 1012,4 hPa 0,0 l/m 11,7 km/h (2 Bft) S-SW 201 0 min 0,9 UV-I 147 W/m 12,5 C 10,8 C 16,1 km/h (3 Bft)
14.10.2022 15:27 13,6 C 13,9 C 93 % 1012,3 hPa 0,0 l/m 10,3 km/h (2 Bft) S-SW 209 0 min 0,8 UV-I 145 W/m 12,5 C 11,4 C 16,1 km/h (3 Bft)
14.10.2022 15:30 13,6 C 13,3 C 93 % 1012,4 hPa 0,0 l/m 11,6 km/h (2 Bft) S-SW 203 0 min 0,6 UV-I 108 W/m 12,5 C 10,8 C 19,3 km/h (3 Bft)
14.10.2022 15:33 13,5 C 13,3 C 92 % 1012,3 hPa 0,0 l/m 12,3 km/h (3 Bft) S-SW 205 0 min 0,6 UV-I 99 W/m 12,2 C 10,4 C 19,3 km/h (3 Bft)
14.10.2022 15:36 13,5 C 13,3 C 92 % 1012,4 hPa 0,0 l/m 11,5 km/h (2 Bft) S-SW 196 0 min 0,4 UV-I 87 W/m 12,2 C 10,8 C 22,5 km/h (4 Bft)
14.10.2022 15:39 13,4 C 13,3 C 92 % 1012,3 hPa 0,0 l/m 12,4 km/h (3 Bft) S-SW 210 0 min 0,0 UV-I 72 W/m 12,1 C 10,3 C 17,7 km/h (3 Bft)
14.10.2022 15:42 13,5 C 13,3 C 92 % 1012,3 hPa 0,0 l/m 11,1 km/h (2 Bft) S-SW 205 0 min 0,0 UV-I 71 W/m 12,2 C 10,9 C 16,1 km/h (3 Bft)
14.10.2022 15:45 13,4 C 13,3 C 92 % 1012,3 hPa 0,0 l/m 11,8 km/h (2 Bft) S-SW 200 0 min 0,0 UV-I 56 W/m 12,1 C 10,5 C 17,7 km/h (3 Bft)
14.10.2022 15:48 13,4 C 12,8 C 92 % 1012,3 hPa 0,0 l/m 11,6 km/h (2 Bft) S-SW 200 0 min 0,0 UV-I 65 W/m 12,1 C 10,6 C 20,9 km/h (4 Bft)
14.10.2022 15:51 13,4 C 13,3 C 92 % 1012,3 hPa 0,0 l/m 9,0 km/h (2 Bft) S 190 0 min 0,2 UV-I 76 W/m 12,1 C 11,9 C 12,9 km/h (3 Bft)
14.10.2022 15:54 13,6 C 13,3 C 92 % 1012,3 hPa 0,0 l/m 11,7 km/h (2 Bft) S 190 0 min 0,6 UV-I 105 W/m 12,3 C 10,8 C 16,1 km/h (3 Bft)
14.10.2022 15:57 13,6 C 13,3 C 92 % 1012,2 hPa 0,0 l/m 10,4 km/h (2 Bft) S-SW 200 0 min 0,6 UV-I 114 W/m 12,3 C 11,4 C 16,1 km/h (3 Bft)
14.10.2022 16:00 13,7 C 13,3 C 92 % 1012,2 hPa 0,0 l/m 11,3 km/h (2 Bft) S-SW 192 0 min 0,6 UV-I 102 W/m 12,4 C 11,1 C 16,1 km/h (3 Bft)
14.10.2022 16:03 13,7 C 13,3 C 92 % 1012,3 hPa 0,0 l/m 10,0 km/h (2 Bft) SW 214 0 min 0,3 UV-I 70 W/m 12,4 C 11,7 C 16,1 km/h (3 Bft)
14.10.2022 16:06 13,7 C 13,3 C 92 % 1012,3 hPa 0,0 l/m 9,5 km/h (2 Bft) S-SW 198 0 min 0,0 UV-I 55 W/m 12,4 C 11,9 C 16,1 km/h (3 Bft)
14.10.2022 16:09 13,7 C 13,3 C 91 % 1012,4 hPa 0,0 l/m 10,0 km/h (2 Bft) S-SW 196 0 min 0,0 UV-I 57 W/m 12,3 C 11,7 C 16,1 km/h (3 Bft)
14.10.2022 16:12 13,8 C 13,9 C 92 % 1012,3 hPa 0,0 l/m 9,6 km/h (2 Bft) S-SW 212 0 min 0,5 UV-I 135 W/m 12,5 C 12,0 C 17,7 km/h (3 Bft)
14.10.2022 16:15 13,8 C 13,9 C 92 % 1012,3 hPa 0,0 l/m 11,2 km/h (2 Bft) SW 215 0 min 0,8 UV-I 157 W/m 12,5 C 11,2 C 19,3 km/h (3 Bft)
14.10.2022 16:18 13,9 C 13,9 C 91 % 1012,4 hPa 0,0 l/m 9,6 km/h (2 Bft) SW 216 0 min 0,8 UV-I 149 W/m 12,5 C 12,1 C 12,9 km/h (3 Bft)
14.10.2022 16:21 13,9 C 14,4 C 91 % 1012,3 hPa 0,0 l/m 7,3 km/h (2 Bft) S-SW 201 0 min 0,8 UV-I 141 W/m 12,5 C 13,4 C 14,5 km/h (3 Bft)
14.10.2022 16:24 14,1 C 13,9 C 91 % 1012,3 hPa 0,0 l/m 7,8 km/h (2 Bft) S 179 0 min 0,7 UV-I 136 W/m 12,7 C 13,3 C 16,1 km/h (3 Bft)
14.10.2022 16:27 13,9 C 13,9 C 91 % 1012,3 hPa 0,0 l/m 10,7 km/h (2 Bft) S 172 0 min 0,6 UV-I 116 W/m 12,5 C 11,6 C 17,7 km/h (3 Bft)
14.10.2022 16:30 13,9 C 13,9 C 91 % 1012,2 hPa 0,0 l/m 11,6 km/h (2 Bft) S 178 0 min 0,2 UV-I 90 W/m 12,5 C 11,2 C 17,7 km/h (3 Bft)
14.10.2022 16:33 13,9 C 13,9 C 91 % 1012,1 hPa 0,0 l/m 8,1 km/h (2 Bft) S-SW 201 0 min 0,1 UV-I 92 W/m 12,5 C 12,9 C 16,1 km/h (3 Bft)
14.10.2022 16:36 13,9 C 13,9 C 90 % 1012,0 hPa 0,0 l/m 10,4 km/h (2 Bft) S 170 0 min 0,2 UV-I 93 W/m 12,3 C 11,7 C 16,1 km/h (3 Bft)
14.10.2022 16:39 13,9 C 13,3 C 90 % 1012,0 hPa 0,0 l/m 7,4 km/h (2 Bft) S-SW 199 0 min 0,0 UV-I 64 W/m 12,3 C 13,3 C 14,5 km/h (3 Bft)
14.10.2022 16:42 13,9 C 13,3 C 90 % 1011,9 hPa 0,0 l/m 8,2 km/h (2 Bft) S 189 0 min 0,0 UV-I 59 W/m 12,3 C 12,8 C 16,1 km/h (3 Bft)
14.10.2022 16:45 13,9 C 13,3 C 90 % 1011,9 hPa 0,0 l/m 8,4 km/h (2 Bft) S 175 0 min 0,0 UV-I 71 W/m 12,3 C 12,7 C 12,9 km/h (3 Bft)
14.10.2022 16:48 13,9 C 13,3 C 90 % 1011,9 hPa 0,0 l/m 6,1 km/h (2 Bft) S-SW 195 0 min 0,0 UV-I 81 W/m 12,3 C 13,9 C 11,3 km/h (2 Bft)
14.10.2022 16:51 13,9 C 13,9 C 90 % 1011,8 hPa 0,0 l/m 6,0 km/h (2 Bft) S 191 0 min 0,0 UV-I 81 W/m 12,3 C 13,9 C 9,7 km/h (2 Bft)
14.10.2022 16:54 13,9 C 13,9 C 90 % 1011,9 hPa 0,0 l/m 4,1 km/h (1 Bft) S-SW 211 0 min 0,0 UV-I 81 W/m 12,3 C 13,9 C 9,7 km/h (2 Bft)
14.10.2022 16:57 13,9 C 13,9 C 90 % 1012,0 hPa 0,0 l/m 7,3 km/h (2 Bft) S 186 0 min 0,0 UV-I 84 W/m 12,3 C 13,4 C 14,5 km/h (3 Bft)
14.10.2022 17:00 13,9 C 13,9 C 90 % 1011,9 hPa 0,0 l/m 9,6 km/h (2 Bft) S-SW 197 0 min 0,0 UV-I 90 W/m 12,3 C 12,1 C 16,1 km/h (3 Bft)
14.10.2022 17:03 14,0 C 13,9 C 90 % 1011,8 hPa 0,0 l/m 8,3 km/h (2 Bft) S 169 0 min 0,0 UV-I 96 W/m 12,4 C 12,9 C 17,7 km/h (3 Bft)
14.10.2022 17:07 14,1 C 13,9 C 91 % 1011,7 hPa 0,0 l/m 6,9 km/h (2 Bft) S 188 0 min 0,0 UV-I 102 W/m 12,7 C 13,8 C 12,9 km/h (3 Bft)
14.10.2022 17:09 14,1 C 13,9 C 91 % 1011,7 hPa 0,0 l/m 7,6 km/h (2 Bft) S-SO 161 0 min 0,0 UV-I 105 W/m 12,7 C 13,4 C 11,3 km/h (2 Bft)
14.10.2022 17:12 14,1 C 13,9 C 91 % 1011,7 hPa 0,0 l/m 7,0 km/h (2 Bft) S-SO 153 0 min 0,0 UV-I 96 W/m 12,7 C 13,7 C 11,3 km/h (2 Bft)
14.10.2022 17:15 14,1 C 13,9 C 90 % 1011,8 hPa 0,0 l/m 7,8 km/h (2 Bft) S-SW 213 0 min 0,0 UV-I 81 W/m 12,5 C 13,3 C 14,5 km/h (3 Bft)
14.10.2022 17:18 14,1 C 13,9 C 90 % 1011,7 hPa 0,0 l/m 11,5 km/h (2 Bft) S-SO 162 0 min 0,0 UV-I 69 W/m 12,5 C 11,4 C 19,3 km/h (3 Bft)
14.10.2022 17:21 14,1 C 13,3 C 90 % 1011,8 hPa 0,0 l/m 11,5 km/h (2 Bft) S-SO 164 0 min 0,0 UV-I 70 W/m 12,5 C 11,4 C 22,5 km/h (4 Bft)
14.10.2022 17:24 14,0 C 13,3 C 89 % 1011,8 hPa 0,0 l/m 9,8 km/h (2 Bft) S 179 0 min 0,0 UV-I 70 W/m 12,2 C 12,1 C 14,5 km/h (3 Bft)
14.10.2022 17:27 14,0 C 13,3 C 89 % 1011,8 hPa 0,0 l/m 10,7 km/h (2 Bft) S-SO 159 0 min 0,0 UV-I 67 W/m 12,2 C 11,7 C 14,5 km/h (3 Bft)
14.10.2022 17:30 13,9 C 13,3 C 89 % 1011,6 hPa 0,0 l/m 11,2 km/h (2 Bft) S 186 0 min 0,0 UV-I 67 W/m 12,1 C 11,3 C 17,7 km/h (3 Bft)
14.10.2022 17:33 13,9 C 13,3 C 89 % 1011,6 hPa 0,0 l/m 10,9 km/h (2 Bft) S 176 0 min 0,0 UV-I 51 W/m 12,1 C 11,5 C 19,3 km/h (3 Bft)
14.10.2022 17:36 13,8 C 13,3 C 89 % 1011,4 hPa 0,0 l/m 11,0 km/h (2 Bft) S 178 0 min 0,0 UV-I 52 W/m 12,0 C 11,3 C 22,5 km/h (4 Bft)
14.10.2022 17:39 13,8 C 13,3 C 89 % 1011,4 hPa 0,0 l/m 8,9 km/h (2 Bft) S-SO 160 0 min 0,0 UV-I 50 W/m 12,0 C 12,3 C 17,7 km/h (3 Bft)
14.10.2022 17:42 13,8 C 13,3 C 89 % 1011,4 hPa 0,0 l/m 8,6 km/h (2 Bft) S-SO 167 0 min 0,0 UV-I 42 W/m 12,0 C 12,5 C 16,1 km/h (3 Bft)
14.10.2022 17:45 13,8 C 13,3 C 89 % 1011,5 hPa 0,0 l/m 9,7 km/h (2 Bft) S 170 0 min 0,0 UV-I 35 W/m 12,0 C 11,9 C 16,1 km/h (3 Bft)
14.10.2022 17:48 13,8 C 12,8 C 89 % 1011,5 hPa 0,0 l/m 7,6 km/h (2 Bft) S 178 0 min 0,0 UV-I 33 W/m 12,0 C 13,1 C 14,5 km/h (3 Bft)
14.10.2022 17:51 13,7 C 12,8 C 89 % 1011,7 hPa 0,0 l/m 10,6 km/h (2 Bft) S-SO 165 0 min 0,0 UV-I 28 W/m 11,9 C 11,4 C 20,9 km/h (4 Bft)
14.10.2022 17:54 13,6 C 12,8 C 89 % 1011,6 hPa 0,0 l/m 12,7 km/h (3 Bft) S 188 0 min 0,0 UV-I 20 W/m 11,8 C 10,4 C 22,5 km/h (4 Bft)
14.10.2022 17:57 13,4 C 12,8 C 89 % 1011,7 hPa 0,0 l/m 12,9 km/h (3 Bft) S-SO 167 0 min 0,0 UV-I 16 W/m 11,6 C 10,1 C 22,5 km/h (4 Bft)
14.10.2022 18:00 13,3 C 12,2 C 89 % 1011,6 hPa 0,0 l/m 10,1 km/h (2 Bft) S 169 0 min 0,0 UV-I 15 W/m 11,5 C 11,2 C 14,5 km/h (3 Bft)
14.10.2022 18:03 13,2 C 12,2 C 90 % 1011,4 hPa 0,0 l/m 12,6 km/h (3 Bft) S 186 0 min 0,0 UV-I 17 W/m 11,6 C 9,9 C 22,5 km/h (4 Bft)
14.10.2022 18:06 13,1 C 12,2 C 90 % 1011,4 hPa 0,0 l/m 12,3 km/h (3 Bft) S 173 0 min 0,0 UV-I 19 W/m 11,5 C 10,0 C 19,3 km/h (3 Bft)
14.10.2022 18:09 13,1 C 12,2 C 90 % 1011,4 hPa 0,0 l/m 10,5 km/h (2 Bft) S 184 0 min 0,0 UV-I 17 W/m 11,5 C 10,8 C 14,5 km/h (3 Bft)
14.10.2022 18:12 13,0 C 12,2 C 90 % 1011,4 hPa 0,0 l/m 9,0 km/h (2 Bft) S-SW 194 0 min 0,0 UV-I 17 W/m 11,4 C 11,4 C 17,7 km/h (3 Bft)
14.10.2022 18:15 12,9 C 12,2 C 90 % 1011,4 hPa 0,0 l/m 9,7 km/h (2 Bft) S-SW 196 0 min 0,0 UV-I 21 W/m 11,3 C 11,0 C 14,5 km/h (3 Bft)
14.10.2022 18:18 12,9 C 12,2 C 90 % 1011,3 hPa 0,0 l/m 11,9 km/h (2 Bft) S 170 0 min 0,0 UV-I 25 W/m 11,3 C 9,9 C 19,3 km/h (3 Bft)
14.10.2022 18:21 12,9 C 12,2 C 90 % 1011,2 hPa 0,0 l/m 11,0 km/h (2 Bft) SW 219 0 min 0,0 UV-I 26 W/m 11,3 C 10,3 C 17,7 km/h (3 Bft)
14.10.2022 18:24 12,8 C 12,2 C 90 % 1011,1 hPa 0,0 l/m 8,5 km/h (2 Bft) S 188 0 min 0,0 UV-I 25 W/m 11,2 C 11,5 C 14,5 km/h (3 Bft)
14.10.2022 18:27 12,8 C 11,7 C 90 % 1011,1 hPa 0,0 l/m 10,4 km/h (2 Bft) S-SW 207 0 min 0,0 UV-I 18 W/m 11,2 C 10,5 C 19,3 km/h (3 Bft)
14.10.2022 18:30 12,8 C 11,7 C 90 % 1011,3 hPa 0,0 l/m 8,2 km/h (2 Bft) S 173 0 min 0,0 UV-I 12 W/m 11,2 C 11,7 C 14,5 km/h (3 Bft)
14.10.2022 18:33 12,7 C 11,7 C 90 % 1011,5 hPa 0,0 l/m 9,6 km/h (2 Bft) S-SW 196 0 min 0,0 UV-I 11 W/m 11,1 C 10,8 C 16,1 km/h (3 Bft)
14.10.2022 18:36 12,7 C 11,7 C 90 % 1011,2 hPa 0,0 l/m 8,6 km/h (2 Bft) S 175 0 min 0,0 UV-I 8 W/m 11,1 C 11,3 C 16,1 km/h (3 Bft)
14.10.2022 18:39 12,7 C 11,7 C 90 % 1010,9 hPa 0,0 l/m 9,4 km/h (2 Bft) S-SO 151 0 min 0,0 UV-I 5 W/m 11,1 C 10,9 C 14,5 km/h (3 Bft)
14.10.2022 18:42 12,7 C 11,7 C 90 % 1010,9 hPa 0,0 l/m 8,2 km/h (2 Bft) S-SO 167 0 min 0,0 UV-I 3 W/m 11,1 C 11,6 C 14,5 km/h (3 Bft)
14.10.2022 18:45 12,6 C 11,7 C 91 % 1011,2 hPa 0,0 l/m 11,2 km/h (2 Bft) S 184 0 min 0,0 UV-I 0 W/m 11,2 C 9,9 C 17,7 km/h (3 Bft)
14.10.2022 18:48 12,6 C 11,7 C 91 % 1011,2 hPa 0,0 l/m 8,4 km/h (2 Bft) S-SW 194 0 min 0,0 UV-I 0 W/m 11,2 C 11,3 C 11,3 km/h (2 Bft)
14.10.2022 18:51 12,6 C 11,7 C 91 % 1011,3 hPa 0,0 l/m 8,3 km/h (2 Bft) SW 216 0 min 0,0 UV-I 0 W/m 11,2 C 11,4 C 11,3 km/h (2 Bft)
14.10.2022 18:54 12,5 C 11,7 C 91 % 1011,3 hPa 0,0 l/m 7,7 km/h (2 Bft) S-SW 203 0 min 0,0 UV-I 0 W/m 11,1 C 11,7 C 11,3 km/h (2 Bft)
14.10.2022 18:57 12,4 C 11,7 C 91 % 1011,2 hPa 0,0 l/m 6,1 km/h (2 Bft) S 190 0 min 0,0 UV-I 0 W/m 11,0 C 12,4 C 11,3 km/h (2 Bft)
14.10.2022 19:00 12,4 C 11,7 C 91 % 1011,2 hPa 0,0 l/m 6,6 km/h (2 Bft) S 182 0 min 0,0 UV-I 0 W/m 11,0 C 12,3 C 9,7 km/h (2 Bft)
14.10.2022 19:03 12,4 C 11,7 C 91 % 1011,2 hPa 0,0 l/m 7,6 km/h (2 Bft) S-SW 207 0 min 0,0 UV-I 0 W/m 11,0 C 11,6 C 17,7 km/h (3 Bft)
14.10.2022 19:06 12,4 C 11,7 C 91 % 1011,3 hPa 0,0 l/m 6,2 km/h (2 Bft) S 186 0 min 0,0 UV-I 0 W/m 11,0 C 12,4 C 11,3 km/h (2 Bft)
14.10.2022 19:09 12,5 C 11,7 C 91 % 1011,3 hPa 0,0 l/m 7,8 km/h (2 Bft) S-SW 208 0 min 0,0 UV-I 0 W/m 11,1 C 11,6 C 14,5 km/h (3 Bft)
14.10.2022 19:12 12,5 C 11,7 C 91 % 1011,3 hPa 0,0 l/m 7,1 km/h (2 Bft) S 188 0 min 0,0 UV-I 0 W/m 11,1 C 12,0 C 11,3 km/h (2 Bft)
14.10.2022 19:15 12,5 C 11,7 C 91 % 1011,2 hPa 0,0 l/m 7,9 km/h (2 Bft) S 189 0 min 0,0 UV-I 0 W/m 11,1 C 11,5 C 16,1 km/h (3 Bft)
14.10.2022 19:18 12,6 C 11,7 C 91 % 1011,3 hPa 0,0 l/m 8,3 km/h (2 Bft) S-SW 200 0 min 0,0 UV-I 0 W/m 11,2 C 11,4 C 12,9 km/h (3 Bft)
14.10.2022 19:21 12,6 C 11,7 C 91 % 1011,3 hPa 0,0 l/m 7,6 km/h (2 Bft) S 178 0 min 0,0 UV-I 0 W/m 11,2 C 11,8 C 14,5 km/h (3 Bft)
14.10.2022 19:24 12,6 C 11,7 C 91 % 1011,2 hPa 0,0 l/m 5,5 km/h (1 Bft) S 188 0 min 0,0 UV-I 0 W/m 11,2 C 12,6 C 9,7 km/h (2 Bft)
14.10.2022 19:27 12,6 C 11,7 C 91 % 1011,2 hPa 0,0 l/m 5,1 km/h (1 Bft) S 190 0 min 0,0 UV-I 0 W/m 11,2 C 12,6 C 8,0 km/h (2 Bft)
14.10.2022 19:30 12,6 C 11,7 C 91 % 1011,3 hPa 0,0 l/m 4,4 km/h (1 Bft) S 188 0 min 0,0 UV-I 0 W/m 11,2 C 12,6 C 8,0 km/h (2 Bft)
14.10.2022 19:33 12,5 C 11,7 C 91 % 1011,2 hPa 0,0 l/m 5,6 km/h (1 Bft) S-SW 209 0 min 0,0 UV-I 0 W/m 11,1 C 12,5 C 8,0 km/h (2 Bft)
14.10.2022 19:36 12,4 C 11,7 C 91 % 1011,3 hPa 0,0 l/m 5,9 km/h (2 Bft) S-SW 208 0 min 0,0 UV-I 0 W/m 11,0 C 12,4 C 8,0 km/h (2 Bft)
14.10.2022 19:39 12,4 C 11,7 C 91 % 1011,2 hPa 0,0 l/m 6,2 km/h (2 Bft) S 175 0 min 0,0 UV-I 0 W/m 11,0 C 12,4 C 11,3 km/h (2 Bft)
14.10.2022 19:42 12,4 C 11,7 C 92 % 1011,0 hPa 0,0 l/m 5,8 km/h (2 Bft) S 180 0 min 0,0 UV-I 0 W/m 11,1 C 12,4 C 8,0 km/h (2 Bft)
14.10.2022 19:45 12,4 C 11,7 C 92 % 1011,0 hPa 0,0 l/m 4,8 km/h (1 Bft) S-SO 157 0 min 0,0 UV-I 0 W/m 11,1 C 12,4 C 9,7 km/h (2 Bft)
14.10.2022 19:48 12,4 C 11,7 C 92 % 1011,1 hPa 0,0 l/m 5,3 km/h (1 Bft) S-SO 168 0 min 0,0 UV-I 0 W/m 11,1 C 12,4 C 8,0 km/h (2 Bft)
14.10.2022 19:51 12,4 C 11,7 C 92 % 1011,0 hPa 0,0 l/m 6,1 km/h (2 Bft) S 169 0 min 0,0 UV-I 0 W/m 11,1 C 12,4 C 9,7 km/h (2 Bft)
14.10.2022 19:54 12,4 C 11,7 C 92 % 1010,9 hPa 0,0 l/m 8,7 km/h (2 Bft) S 169 0 min 0,0 UV-I 0 W/m 11,1 C 11,0 C 14,5 km/h (3 Bft)
14.10.2022 19:57 12,3 C 11,7 C 92 % 1011,0 hPa 0,0 l/m 8,7 km/h (2 Bft) S-SO 157 0 min 0,0 UV-I 0 W/m 11,0 C 10,8 C 14,5 km/h (3 Bft)
14.10.2022 20:00 12,3 C 11,7 C 91 % 1011,0 hPa 0,0 l/m 9,4 km/h (2 Bft) S-SO 154 0 min 0,0 UV-I 0 W/m 10,9 C 10,5 C 16,1 km/h (3 Bft)
14.10.2022 20:03 12,2 C 11,7 C 91 % 1010,9 hPa 0,0 l/m 6,4 km/h (2 Bft) S 175 0 min 0,0 UV-I 0 W/m 10,8 C 12,2 C 11,3 km/h (2 Bft)
14.10.2022 20:06 12,2 C 11,1 C 91 % 1011,0 hPa 0,0 l/m 6,9 km/h (2 Bft) S-SO 163 0 min 0,0 UV-I 0 W/m 10,8 C 11,9 C 11,3 km/h (2 Bft)
14.10.2022 20:09 12,2 C 11,1 C 91 % 1011,0 hPa 0,0 l/m 5,8 km/h (2 Bft) S 178 0 min 0,0 UV-I 0 W/m 10,8 C 12,2 C 9,7 km/h (2 Bft)
14.10.2022 20:12 12,2 C 11,7 C 91 % 1011,1 hPa 0,0 l/m 5,5 km/h (1 Bft) S 179 0 min 0,0 UV-I 0 W/m 10,8 C 12,2 C 9,7 km/h (2 Bft)
14.10.2022 20:15 12,2 C 11,7 C 92 % 1011,0 hPa 0,0 l/m 4,7 km/h (1 Bft) S-SW 205 0 min 0,0 UV-I 0 W/m 10,9 C 12,2 C 8,0 km/h (2 Bft)
14.10.2022 20:18 12,2 C 11,7 C 92 % 1011,0 hPa 0,0 l/m 7,0 km/h (2 Bft) S 182 0 min 0,0 UV-I 0 W/m 10,9 C 11,8 C 11,3 km/h (2 Bft)
14.10.2022 20:21 12,2 C 11,7 C 92 % 1011,0 hPa 0,0 l/m 5,9 km/h (2 Bft) S-SO 161 0 min 0,0 UV-I 0 W/m 10,9 C 12,2 C 14,5 km/h (3 Bft)
14.10.2022 20:24 12,1 C 11,1 C 92 % 1011,0 hPa 0,0 l/m 7,6 km/h (2 Bft) S 183 0 min 0,0 UV-I 0 W/m 10,8 C 11,3 C 12,9 km/h (3 Bft)
14.10.2022 20:27 12,1 C 11,1 C 92 % 1011,1 hPa 0,0 l/m 6,9 km/h (2 Bft) S-SW 198 0 min 0,0 UV-I 0 W/m 10,8 C 11,8 C 12,9 km/h (3 Bft)
14.10.2022 20:30 12,1 C 11,1 C 92 % 1011,0 hPa 0,0 l/m 8,0 km/h (2 Bft) S-SW 196 0 min 0,0 UV-I 0 W/m 10,8 C 11,1 C 12,9 km/h (3 Bft)
14.10.2022 20:33 12,1 C 11,1 C 92 % 1010,9 hPa 0,0 l/m 6,4 km/h (2 Bft) S-SW 201 0 min 0,0 UV-I 0 W/m 10,8 C 12,1 C 9,7 km/h (2 Bft)
14.10.2022 20:36 12,0 C 11,1 C 92 % 1010,8 hPa 0,0 l/m 6,4 km/h (2 Bft) S 187 0 min 0,0 UV-I 0 W/m 10,7 C 12,0 C 9,7 km/h (2 Bft)
14.10.2022 20:39 12,0 C 11,1 C 92 % 1010,8 hPa 0,0 l/m 5,1 km/h (1 Bft) S 188 0 min 0,0 UV-I 0 W/m 10,7 C 12,0 C 9,7 km/h (2 Bft)
14.10.2022 20:42 11,9 C 11,1 C 92 % 1010,8 hPa 0,0 l/m 4,3 km/h (1 Bft) S 179 0 min 0,0 UV-I 0 W/m 10,6 C 11,9 C 8,0 km/h (2 Bft)
14.10.2022 20:45 11,9 C 11,1 C 92 % 1010,8 hPa 0,0 l/m 3,3 km/h (1 Bft) S 181 0 min 0,0 UV-I 0 W/m 10,6 C 11,9 C 6,4 km/h (2 Bft)
14.10.2022 20:48 11,9 C 11,1 C 92 % 1010,8 hPa 0,0 l/m 6,7 km/h (2 Bft) S 188 0 min 0,0 UV-I 0 W/m 10,6 C 11,7 C 11,3 km/h (2 Bft)
14.10.2022 20:51 12,0 C 11,1 C 92 % 1010,9 hPa 0,0 l/m 6,6 km/h (2 Bft) S 180 0 min 0,0 UV-I 0 W/m 10,7 C 11,9 C 9,7 km/h (2 Bft)
14.10.2022 20:54 12,0 C 11,1 C 92 % 1010,8 hPa 0,0 l/m 5,2 km/h (1 Bft) S-SW 192 0 min 0,0 UV-I 0 W/m 10,7 C 12,0 C 8,0 km/h (2 Bft)
14.10.2022 20:57 12,0 C 11,1 C 92 % 1010,8 hPa 0,0 l/m 4,2 km/h (1 Bft) S 176 0 min 0,0 UV-I 0 W/m 10,7 C 12,0 C 8,0 km/h (2 Bft)
14.10.2022 21:00 12,0 C 11,1 C 92 % 1010,7 hPa 0,0 l/m 4,3 km/h (1 Bft) S-SW 200 0 min 0,0 UV-I 0 W/m 10,7 C 12,0 C 6,4 km/h (2 Bft)
14.10.2022 21:03 12,0 C 11,1 C 92 % 1010,7 hPa 0,0 l/m 5,7 km/h (1 Bft) S 174 0 min 0,0 UV-I 0 W/m 10,7 C 12,0 C 11,3 km/h (2 Bft)
14.10.2022 21:06 12,0 C 11,1 C 92 % 1010,6 hPa 0,0 l/m 5,6 km/h (1 Bft) S 169 0 min 0,0 UV-I 0 W/m 10,7 C 12,0 C 8,0 km/h (2 Bft)
14.10.2022 21:09 12,1 C 11,7 C 92 % 1010,6 hPa 0,0 l/m 5,8 km/h (2 Bft) S 184 0 min 0,0 UV-I 0 W/m 10,8 C 12,1 C 9,7 km/h (2 Bft)
14.10.2022 21:12 12,1 C 11,7 C 93 % 1010,6 hPa 0,0 l/m 4,7 km/h (1 Bft) S-SW 193 0 min 0,0 UV-I 0 W/m 11,0 C 12,1 C 8,0 km/h (2 Bft)
14.10.2022 21:15 12,1 C 11,7 C 93 % 1010,6 hPa 0,0 l/m 7,2 km/h (2 Bft) S-SW 197 0 min 0,0 UV-I 0 W/m 11,0 C 11,6 C 11,3 km/h (2 Bft)
14.10.2022 21:18 12,1 C 11,7 C 93 % 1010,5 hPa 0,0 l/m 4,8 km/h (1 Bft) S 184 0 min 0,0 UV-I 0 W/m 11,0 C 12,1 C 8,0 km/h (2 Bft)
14.10.2022 21:21 12,1 C 11,7 C 93 % 1010,6 hPa 0,0 l/m 6,9 km/h (2 Bft) S 181 0 min 0,0 UV-I 0 W/m 11,0 C 11,8 C 14,5 km/h (3 Bft)
14.10.2022 21:24 12,1 C 11,7 C 93 % 1010,7 hPa 0,0 l/m 5,0 km/h (1 Bft) SW 214 0 min 0,0 UV-I 0 W/m 11,0 C 12,1 C 9,7 km/h (2 Bft)
14.10.2022 21:27 12,1 C 11,7 C 93 % 1010,7 hPa 0,0 l/m 5,0 km/h (1 Bft) S 191 0 min 0,0 UV-I 0 W/m 11,0 C 12,1 C 8,0 km/h (2 Bft)
14.10.2022 21:30 12,1 C 11,7 C 93 % 1010,6 hPa 0,0 l/m 6,1 km/h (2 Bft) S-SO 154 0 min 0,0 UV-I 0 W/m 11,0 C 12,1 C 9,7 km/h (2 Bft)
14.10.2022 21:33 12,1 C 11,7 C 93 % 1010,6 hPa 0,0 l/m 4,8 km/h (1 Bft) S-SW 192 0 min 0,0 UV-I 0 W/m 11,0 C 12,1 C 8,0 km/h (2 Bft)
14.10.2022 21:36 12,0 C 11,7 C 93 % 1010,6 hPa 0,0 l/m 4,2 km/h (1 Bft) S 180 0 min 0,0 UV-I 0 W/m 10,9 C 12,0 C 11,3 km/h (2 Bft)
14.10.2022 21:39 12,0 C 11,7 C 93 % 1010,5 hPa 0,2 l/m 4,4 km/h (1 Bft) S-SW 206 0 min 0,0 UV-I 0 W/m 10,9 C 12,0 C 6,4 km/h (2 Bft)
14.10.2022 21:42 12,1 C 11,7 C 93 % 1010,5 hPa 0,0 l/m 5,0 km/h (1 Bft) S 175 0 min 0,0 UV-I 0 W/m 11,0 C 12,1 C 9,7 km/h (2 Bft)
14.10.2022 21:45 12,0 C 11,7 C 93 % 1010,4 hPa 0,0 l/m 2,8 km/h (1 Bft) S 175 0 min 0,0 UV-I 0 W/m 10,9 C 12,0 C 4,8 km/h (1 Bft)
14.10.2022 21:48 12,0 C 11,7 C 93 % 1010,4 hPa 0,0 l/m 2,9 km/h (1 Bft) S 175 0 min 0,0 UV-I 0 W/m 10,9 C 12,0 C 6,4 km/h (2 Bft)
14.10.2022 21:51 12,0 C 11,7 C 93 % 1010,4 hPa 0,0 l/m 4,2 km/h (1 Bft) S 177 0 min 0,0 UV-I 0 W/m 10,9 C 12,0 C 9,7 km/h (2 Bft)
14.10.2022 21:54 12,0 C 11,7 C 93 % 1010,3 hPa 0,0 l/m 3,4 km/h (1 Bft) S 175 0 min 0,0 UV-I 0 W/m 10,9 C 12,0 C 6,4 km/h (2 Bft)
14.10.2022 21:57 12,0 C 11,7 C 93 % 1010,4 hPa 0,0 l/m 3,3 km/h (1 Bft) S 176 0 min 0,0 UV-I 0 W/m 10,9 C 12,0 C 6,4 km/h (2 Bft)
14.10.2022 22:00 12,0 C 11,7 C 93 % 1010,3 hPa 0,0 l/m 2,2 km/h (1 Bft) S 176 0 min 0,0 UV-I 0 W/m 10,9 C 12,0 C 3,2 km/h (1 Bft)
14.10.2022 22:03 12,0 C 11,7 C 93 % 1010,3 hPa 0,2 l/m 2,5 km/h (1 Bft) S 177 0 min 0,0 UV-I 0 W/m 10,9 C 12,0 C 4,8 km/h (1 Bft)
14.10.2022 22:06 11,9 C 11,7 C 93 % 1010,4 hPa 0,0 l/m 2,9 km/h (1 Bft) S 180 0 min 0,0 UV-I 0 W/m 10,8 C 11,9 C 4,8 km/h (1 Bft)
14.10.2022 22:09 11,9 C 11,7 C 93 % 1010,3 hPa 0,0 l/m 3,0 km/h (1 Bft) S 180 0 min 0,0 UV-I 0 W/m 10,8 C 11,9 C 4,8 km/h (1 Bft)
14.10.2022 22:12 11,9 C 11,7 C 93 % 1010,3 hPa 0,0 l/m 2,5 km/h (1 Bft) S 180 0 min 0,0 UV-I 0 W/m 10,8 C 11,9 C 6,4 km/h (2 Bft)
14.10.2022 22:15 11,9 C 11,7 C 93 % 1010,2 hPa 0,0 l/m 1,9 km/h (1 Bft) S 180 0 min 0,0 UV-I 0 W/m 10,8 C 11,9 C 4,8 km/h (1 Bft)
14.10.2022 22:18 11,9 C 11,7 C 93 % 1010,3 hPa 0,0 l/m 2,0 km/h (1 Bft) S 180 0 min 0,0 UV-I 0 W/m 10,8 C 11,9 C 4,8 km/h (1 Bft)
14.10.2022 22:21 11,9 C 11,7 C 94 % 1010,3 hPa 0,0 l/m 2,4 km/h (1 Bft) S 180 0 min 0,0 UV-I 0 W/m 11,0 C 11,9 C 4,8 km/h (1 Bft)
14.10.2022 22:24 11,9 C 11,7 C 94 % 1010,2 hPa 0,0 l/m 1,6 km/h (1 Bft) S 180 0 min 0,0 UV-I 0 W/m 11,0 C 11,9 C 3,2 km/h (1 Bft)
14.10.2022 22:27 11,9 C 11,7 C 94 % 1010,2 hPa 0,0 l/m 2,3 km/h (1 Bft) S 180 0 min 0,0 UV-I 0 W/m 11,0 C 11,9 C 3,2 km/h (1 Bft)
14.10.2022 22:30 11,9 C 11,7 C 94 % 1010,2 hPa 0,0 l/m 2,3 km/h (1 Bft) S 180 0 min 0,0 UV-I 0 W/m 11,0 C 11,9 C 4,8 km/h (1 Bft)
14.10.2022 22:33 11,9 C 11,7 C 94 % 1010,2 hPa 0,0 l/m 2,9 km/h (1 Bft) S 180 0 min 0,0 UV-I 0 W/m 11,0 C 11,9 C 4,8 km/h (1 Bft)
14.10.2022 22:36 11,9 C 11,7 C 94 % 1010,0 hPa 0,0 l/m 1,4 km/h (1 Bft) S 180 0 min 0,0 UV-I 0 W/m 11,0 C 11,9 C 3,2 km/h (1 Bft)
14.10.2022 22:39 11,9 C 11,7 C 94 % 1009,9 hPa 0,0 l/m 1,1 km/h (1 Bft) S 180 0 min 0,0 UV-I 0 W/m 11,0 C 11,9 C 1,6 km/h (1 Bft)
14.10.2022 22:42 11,9 C 11,7 C 94 % 1010,0 hPa 0,0 l/m 1,8 km/h (1 Bft) S 180 0 min 0,0 UV-I 0 W/m 11,0 C 11,9 C 4,8 km/h (1 Bft)
14.10.2022 22:45 11,9 C 11,1 C 94 % 1009,9 hPa 0,0 l/m 2,2 km/h (1 Bft) S 180 0 min 0,0 UV-I 0 W/m 11,0 C 11,9 C 3,2 km/h (1 Bft)
14.10.2022 22:48 11,9 C 11,1 C 94 % 1009,9 hPa 0,0 l/m 2,0 km/h (1 Bft) S 180 0 min 0,0 UV-I 0 W/m 11,0 C 11,9 C 3,2 km/h (1 Bft)
14.10.2022 22:51 11,9 C 11,7 C 94 % 1009,8 hPa 0,0 l/m 2,3 km/h (1 Bft) S 180 0 min 0,0 UV-I 0 W/m 11,0 C 11,9 C 4,8 km/h (1 Bft)
14.10.2022 22:54 11,9 C 11,7 C 94 % 1009,8 hPa 0,2 l/m 2,1 km/h (1 Bft) S 180 0 min 0,0 UV-I 0 W/m 11,0 C 11,9 C 3,2 km/h (1 Bft)
14.10.2022 22:57 11,9 C 11,7 C 94 % 1009,8 hPa 0,0 l/m 1,7 km/h (1 Bft) S 180 0 min 0,0 UV-I 0 W/m 11,0 C 11,9 C 4,8 km/h (1 Bft)
14.10.2022 23:00 11,9 C 11,7 C 94 % 1009,8 hPa 0,0 l/m 3,3 km/h (1 Bft) S 182 0 min 0,0 UV-I 0 W/m 11,0 C 11,9 C 6,4 km/h (2 Bft)
14.10.2022 23:03 11,9 C 11,7 C 94 % 1009,9 hPa 0,0 l/m 3,6 km/h (1 Bft) S 178 0 min 0,0 UV-I 0 W/m 11,0 C 11,9 C 6,4 km/h (2 Bft)
14.10.2022 23:06 11,9 C 11,7 C 94 % 1009,8 hPa 0,0 l/m 3,9 km/h (1 Bft) S 177 0 min 0,0 UV-I 0 W/m 11,0 C 11,9 C 8,0 km/h (2 Bft)
14.10.2022 23:09 11,9 C 11,7 C 94 % 1009,7 hPa 0,0 l/m 3,9 km/h (1 Bft) S-SO 155 0 min 0,0 UV-I 0 W/m 11,0 C 11,9 C 6,4 km/h (2 Bft)
14.10.2022 23:12 11,8 C 11,7 C 94 % 1009,8 hPa 0,0 l/m 2,8 km/h (1 Bft) S-SO 156 0 min 0,0 UV-I 0 W/m 10,9 C 11,8 C 6,4 km/h (2 Bft)
14.10.2022 23:15 11,9 C 11,7 C 94 % 1009,7 hPa 0,0 l/m 3,8 km/h (1 Bft) S 175 0 min 0,0 UV-I 0 W/m 11,0 C 11,9 C 8,0 km/h (2 Bft)
14.10.2022 23:18 11,9 C 11,7 C 94 % 1009,8 hPa 0,0 l/m 3,2 km/h (1 Bft) S 175 0 min 0,0 UV-I 0 W/m 11,0 C 11,9 C 4,8 km/h (1 Bft)
14.10.2022 23:21 11,9 C 11,7 C 94 % 1009,8 hPa 0,0 l/m 2,3 km/h (1 Bft) S 175 0 min 0,0 UV-I 0 W/m 11,0 C 11,9 C 4,8 km/h (1 Bft)
14.10.2022 23:24 11,9 C 11,7 C 94 % 1009,8 hPa 0,0 l/m 3,2 km/h (1 Bft) S 175 0 min 0,0 UV-I 0 W/m 11,0 C 11,9 C 4,8 km/h (1 Bft)
14.10.2022 23:27 11,9 C 11,7 C 94 % 1009,9 hPa 0,0 l/m 1,5 km/h (1 Bft) S 175 0 min 0,0 UV-I 0 W/m 11,0 C 11,9 C 3,2 km/h (1 Bft)
14.10.2022 23:30 11,9 C 11,7 C 94 % 1009,8 hPa 0,0 l/m 3,8 km/h (1 Bft) S 180 0 min 0,0 UV-I 0 W/m 11,0 C 11,9 C 4,8 km/h (1 Bft)
14.10.2022 23:33 11,9 C 11,7 C 94 % 1009,9 hPa 0,0 l/m 3,3 km/h (1 Bft) S 183 0 min 0,0 UV-I 0 W/m 11,0 C 11,9 C 4,8 km/h (1 Bft)
14.10.2022 23:36 11,9 C 11,7 C 94 % 1009,8 hPa 0,0 l/m 3,5 km/h (1 Bft) SW 220 0 min 0,0 UV-I 0 W/m 11,0 C 11,9 C 6,4 km/h (2 Bft)
14.10.2022 23:39 11,9 C 11,7 C 94 % 1009,9 hPa 0,0 l/m 2,9 km/h (1 Bft) SW 219 0 min 0,0 UV-I 0 W/m 11,0 C 11,9 C 4,8 km/h (1 Bft)
14.10.2022 23:42 11,9 C 11,7 C 94 % 1009,8 hPa 0,0 l/m 4,6 km/h (1 Bft) S-SW 210 0 min 0,0 UV-I 0 W/m 11,0 C 11,9 C 8,0 km/h (2 Bft)
14.10.2022 23:45 11,9 C 11,7 C 94 % 1009,8 hPa 0,0 l/m 3,0 km/h (1 Bft) S-SW 210 0 min 0,0 UV-I 0 W/m 11,0 C 11,9 C 4,8 km/h (1 Bft)
14.10.2022 23:48 11,9 C 11,7 C 94 % 1009,8 hPa 0,0 l/m 3,7 km/h (1 Bft) S-SW 209 0 min 0,0 UV-I 0 W/m 11,0 C 11,9 C 6,4 km/h (2 Bft)
14.10.2022 23:51 11,9 C 11,7 C 94 % 1009,7 hPa 0,0 l/m 3,6 km/h (1 Bft) S-SW 209 0 min 0,0 UV-I 0 W/m 11,0 C 11,9 C 6,4 km/h (2 Bft)
14.10.2022 23:54 11,9 C 11,7 C 94 % 1009,6 hPa 0,0 l/m 1,5 km/h (1 Bft) S-SW 209 0 min 0,0 UV-I 0 W/m 11,0 C 11,9 C 3,2 km/h (1 Bft)
14.10.2022 23:57 11,9 C 11,7 C 94 % 1009,7 hPa 0,0 l/m 3,0 km/h (1 Bft) S-SW 209 0 min 0,0 UV-I 0 W/m 11,0 C 11,9 C 4,8 km/h (1 Bft)
_ Min-Zeit 00:03 00:00 17:24 23:54 - 22:39 - - - - - 00:00 00:06 22:39
Minimum _ 10,7 C 10,0 C 89 % 1009,6 hPa - 1,1 km/h (1 Bft) - - - - - 9,7 C 6,1 C 1,6 km/h (1 Bft)
_ Max-Zeit 16:24 16:21 02:06 00:06 00:30 15:18 - - 00:00 13:09 15:18 16:24 16:48 15:00
Maximum _ 14,1 C 14,4 C 94 % 1018,9 hPa 0,2 l/m 16,4 km/h
SW (3 Bft)
- - 0 min 1,2 UV-I 207 W/m 12,7 C 13,9 C 29,0 km/h
S (5 Bft)
Durchschnitt _ 11,9 C 11,6 C 93 % 1014,0 hPa #1,8 l/m 7,7 km/h (2 Bft) S - #0 min. 0,7 UV-I 75 W/m 10,8 C 10,7 C 13,4 km/h (3 Bft)